FW1385 Weather Reports


time (UTC)temp
C
wind
direction
speed
KPH
gust
KPH
rain 1hr
cm
rain 24hr
cm
rain mn
cm
humidity
%
barometer
mb
20260508000003 15 280 0.0 1.6 0.00 0.18 0.03 59 1012.8
20260507235904 15 280 0.0 3.2 0.00 0.18 0.03 59 1012.8
20260507235703 15 280 0.0 3.2 0.00 0.18 0.03 57 1012.8
20260507235603 15 280 0.0 3.2 0.00 0.18 0.03 58 1012.8
20260507235503 15 280 0.0 3.2 0.00 0.18 0.03 57 1012.8
20260507235403 15 280 0.0 3.2 0.00 0.18 0.03 58 1012.7
20260507235203 15 280 0.0 3.2 0.00 0.18 0.03 58 1012.7
20260507235103 15 280 0.0 3.2 0.00 0.18 0.03 57 1012.7
20260507235004 15 280 0.0 3.2 0.00 0.18 0.03 58 1012.6
20260507234904 15 280 0.0 1.6 0.00 0.18 0.03 57 1012.6
20260507234803 15 280 0.0 1.6 0.00 0.18 0.03 59 1012.6
20260507234704 15 280 0.0 1.6 0.00 0.18 0.03 58 1012.6
20260507234603 15 280 0.0 1.6 0.00 0.18 0.03 58 1012.6
20260507234404 16 280 0.0 1.6 0.00 0.18 0.03 58 1012.5
20260507234303 16 280 0.0 1.6 0.00 0.18 0.03 58 1012.5
20260507234203 16 280 0.0 1.6 0.00 0.18 0.03 57 1012.6
20260507234104 16 280 0.0 1.6 0.00 0.18 0.03 56 1012.5
20260507233903 16 280 0.0 1.6 0.00 0.18 0.03 55 1012.6
20260507233804 16 280 0.0 3.2 0.00 0.18 0.03 55 1012.6
20260507233703 16 280 0.0 3.2 0.00 0.18 0.03 55 1012.6
20260507233603 16 280 0.0 3.2 0.00 0.18 0.03 58 1012.6
20260507233504 16 280 0.0 3.2 0.00 0.18 0.03 56 1012.6
20260507233404 16 280 0.0 3.2 0.00 0.18 0.03 54 1012.6
20260507233304 16 280 0.0 3.2 0.00 0.18 0.03 56 1012.6
20260507233204 16 278 0.0 3.2 0.00 0.18 0.03 55 1012.6
20260507233103 16 277 0.0 3.2 0.00 0.18 0.03 55 1012.6
20260507233019 16 277 0.0 3.2 0.00 0.18 0.03 54 1012.6
20260507232903 16 277 0.0 3.2 0.00 0.18 0.03 54 1012.6
20260507232603 16 275 0.0 3.2 0.00 0.18 0.03 53 1012.6
20260507232504 16 275 0.0 3.2 0.00 0.18 0.03 54 1012.6
20260507232404 16 274 1.6 3.2 0.00 0.18 0.03 52 1012.6
20260507232306 16 267 1.6 3.2 0.00 0.18 0.03 54 1012.6
20260507232204 16 257 1.6 3.2 0.00 0.18 0.03 54 1012.6
20260507232103 16 248 1.6 3.2 0.00 0.18 0.03 55 1012.6
20260507232003 16 244 1.6 3.2 0.00 0.20 0.03 54 1012.6
20260507231917 16 245 1.6 3.2 0.00 0.20 0.03 54 1012.6
20260507231903 16 248 1.6 3.2 0.00 0.20 0.03 54 1012.6
20260507231803 16 256 1.6 4.8 0.00 0.20 0.03 53 1012.6
20260507231719 16 258 1.6 4.8 0.00 0.20 0.03 53 1012.6
20260507231603 16 262 1.6 4.8 0.00 0.20 0.03 56 1012.6
20260507231404 16 263 1.6 6.4 0.00 0.20 0.03 59 1012.5
20260507231317 16 265 1.6 6.4 0.00 0.20 0.03 55 1012.5
20260507231304 16 266 1.6 6.4 0.00 0.20 0.03 55 1012.5
20260507231204 16 270 1.6 6.4 0.00 0.20 0.03 55 1012.5
20260507231003 16 279 1.6 6.4 0.00 0.20 0.03 54 1012.5
20260507230918 16 280 0.0 6.4 0.00 0.20 0.03 54 1012.5
20260507230903 16 278 0.0 6.4 0.00 0.20 0.03 56 1012.5
20260507230803 16 267 0.0 6.4 0.00 0.20 0.03 54 1012.4
20260507230603 16 247 0.0 6.4 0.00 0.20 0.03 54 1012.5
20260507230503 16 235 0.0 4.8 0.00 0.20 0.03 55 1012.4
20260507230403 16 236 0.0 4.8 0.00 0.20 0.03 59 1012.4
20260507230303 16 237 0.0 4.8 0.00 0.20 0.03 59 1012.4
20260507230204 16 231 0.0 4.8 0.00 0.20 0.03 53 1012.4
20260507230005 17 255 0.0 4.8 0.00 0.20 0.03 55 1012.5
20260507225903 17 259 0.0 4.8 0.00 0.20 0.03 55 1012.5
20260507225803 17 264 0.0 4.8 0.00 0.20 0.03 54 1012.5
20260507225704 17 273 0.0 4.8 0.00 0.20 0.03 52 1012.5
20260507225604 17 274 0.0 4.8 0.00 0.20 0.03 53 1012.5
20260507225503 17 281 0.0 4.8 0.00 0.20 0.03 53 1012.5
20260507225404 17 282 0.0 4.8 0.00 0.20 0.03 52 1012.5
20260507225306 17 286 0.0 4.8 0.00 0.20 0.03 50 1012.6
20260507225203 17 308 0.0 4.8 0.00 0.20 0.03 54 1012.6
20260507225103 17 290 0.0 4.8 0.00 0.20 0.03 52 1012.6
20260507225003 17 284 0.0 4.8 0.00 0.20 0.03 49 1012.6
20260507224903 17 283 0.0 4.8 0.00 0.20 0.03 50 1012.6
20260507224803 17 283 1.6 6.4 0.00 0.20 0.03 52 1012.5
20260507224705 17 287 1.6 6.4 0.00 0.20 0.03 52 1012.6
20260507224603 17 292 1.6 6.4 0.00 0.20 0.03 54 1012.6
20260507224504 17 297 1.6 6.4 0.00 0.20 0.03 51 1012.5
20260507224404 17 295 1.6 6.4 0.00 0.20 0.03 51 1012.5
20260507224204 17 285 1.6 6.4 0.00 0.20 0.03 54 1012.5
20260507224118 17 288 1.6 6.4 0.00 0.20 0.03 52 1012.5
20260507224103 17 287 1.6 6.4 0.00 0.20 0.03 51 1012.5
20260507224004 17 291 1.6 6.4 0.00 0.20 0.03 50 1012.6
20260507223803 17 295 1.6 4.8 0.00 0.20 0.03 54 1012.6
20260507223716 17 293 1.6 4.8 0.00 0.20 0.03 56 1012.6
20260507223703 17 292 1.6 4.8 0.00 0.20 0.03 56 1012.6
20260507223603 17 290 1.6 4.8 0.00 0.20 0.03 52 1012.6
20260507223404 17 299 1.6 6.4 0.00 0.20 0.03 54 1012.7
20260507223303 17 304 1.6 6.4 0.00 0.20 0.03 52 1012.7
20260507223203 17 309 1.6 6.4 0.00 0.20 0.03 52 1012.7
20260507223118 17 311 1.6 6.4 0.00 0.20 0.03 52 1012.7
20260507223104 17 312 1.6 6.4 0.00 0.20 0.03 52 1012.7
20260507223018 17 311 1.6 6.4 0.00 0.20 0.03 52 1012.7
20260507223004 17 310 1.6 6.4 0.00 0.20 0.03 52 1012.7
20260507222703 17 309 1.6 6.4 0.00 0.20 0.03 47 1012.7
20260507222603 17 308 1.6 6.4 0.00 0.20 0.03 47 1012.7
20260507222503 17 307 1.6 6.4 0.00 0.20 0.03 46 1012.7
20260507222403 17 302 1.6 6.4 0.00 0.20 0.03 50 1012.7
20260507222317 17 301 1.6 6.4 0.00 0.20 0.03 49 1012.7
20260507222306 17 303 1.6 6.4 0.00 0.20 0.03 50 1012.7
20260507222204 17 302 1.6 6.4 0.00 0.20 0.03 53 1012.7
20260507222019 17 303 1.6 6.4 0.00 0.20 0.03 48 1012.7
20260507222003 17 301 1.6 6.4 0.00 0.20 0.03 48 1012.7
20260507221903 17 295 1.6 6.4 0.00 0.20 0.03 50 1012.8
20260507221703 17 295 1.6 6.4 0.00 0.20 0.03 50 1012.8
20260507221603 17 295 1.6 6.4 0.00 0.20 0.03 53 1012.8
20260507221503 17 296 1.6 6.4 0.00 0.20 0.03 49 1012.8
20260507221404 17 296 1.6 6.4 0.00 0.20 0.03 48 1012.8
20260507221303 17 297 1.6 6.4 0.00 0.20 0.03 51 1012.8
20260507221217 17 297 1.6 6.4 0.00 0.20 0.03 48 1012.8
20260507221103 17 289 1.6 6.4 0.00 0.20 0.03 50 1012.8
20260507220903 17 293 1.6 4.8 0.00 0.20 0.03 49 1012.7
20260507220804 17 305 1.6 9.7 0.00 0.20 0.03 49 1012.8
20260507220704 17 313 1.6 9.7 0.00 0.20 0.03 49 1012.8
20260507220617 17 315 1.6 9.7 0.00 0.20 0.03 48 1012.8
20260507220604 17 317 1.6 9.7 0.00 0.20 0.03 48 1012.8
20260507220503 18 322 1.6 9.7 0.00 0.20 0.03 48 1012.8
20260507220303 18 304 1.6 9.7 0.00 0.20 0.03 52 1012.8
20260507220203 18 303 1.6 9.7 0.00 0.20 0.03 51 1012.8
20260507220003 18 293 1.6 9.7 0.00 0.20 0.03 48 1012.8
20260507215903 18 293 1.6 9.7 0.00 0.20 0.03 48 1012.8
20260507215804 18 280 1.6 8.0 0.00 0.20 0.03 50 1012.8
20260507215704 18 262 1.6 4.8 0.00 0.20 0.03 47 1012.8
20260507215603 18 213 1.6 6.4 0.00 0.20 0.03 51 1012.8
20260507215503 17 196 1.6 6.4 0.00 0.20 0.03 49 1012.7
20260507215404 17 197 1.6 11.3 0.00 0.20 0.03 50 1012.7
20260507215306 17 200 1.6 11.3 0.00 0.20 0.03 51 1012.7
20260507215203 17 199 1.6 11.3 0.00 0.20 0.03 47 1012.7
20260507215118 17 208 1.6 11.3 0.00 0.20 0.03 49 1012.7
20260507215103 17 211 1.6 11.3 0.00 0.20 0.03 49 1012.7
20260507215018 17 218 1.6 11.3 0.00 0.20 0.03 53 1012.7
20260507215003 17 221 1.6 11.3 0.00 0.20 0.03 53 1012.6
20260507214703 18 232 1.6 11.3 0.00 0.20 0.03 48 1012.7
20260507214603 18 223 1.6 11.3 0.00 0.20 0.03 46 1012.7
20260507214504 18 204 1.6 11.3 0.00 0.20 0.03 48 1012.6
20260507214404 18 186 1.6 9.7 0.00 0.20 0.03 49 1012.6
20260507214317 18 175 1.6 9.7 0.00 0.20 0.03 49 1012.6
20260507214304 18 173 1.6 9.7 0.00 0.20 0.03 49 1012.6
20260507214219 18 168 1.6 9.7 0.00 0.20 0.03 51 1012.6
20260507214203 18 166 1.6 9.7 0.00 0.20 0.03 52 1012.6
20260507214018 18 159 3.2 9.7 0.00 0.20 0.03 47 1012.5
20260507213917 18 161 3.2 9.7 0.00 0.20 0.03 50 1012.5
20260507213904 18 163 3.2 9.7 0.00 0.20 0.03 50 1012.5
20260507213603 18 173 1.6 6.4 0.00 0.20 0.03 52 1012.5
20260507213504 18 180 1.6 6.4 0.00 0.20 0.03 50 1012.5
20260507213403 18 195 1.6 6.4 0.00 0.20 0.03 51 1012.5
20260507213303 18 210 1.6 6.4 0.00 0.20 0.03 54 1012.5
20260507213203 18 234 1.6 6.4 0.00 0.20 0.03 49 1012.5
20260507213103 18 264 1.6 6.4 0.00 0.20 0.03 52 1012.5
20260507213003 18 283 1.6 6.4 0.00 0.20 0.03 48 1012.5
20260507212905 18 318 1.6 8.0 0.00 0.20 0.03 48 1012.5
20260507212804 18 328 1.6 8.0 0.00 0.20 0.03 47 1012.6
20260507212703 18 348 1.6 8.0 0.00 0.20 0.03 50 1012.5
20260507212604 18 2 3.2 8.0 0.00 0.20 0.03 48 1012.5
20260507212503 18 9 3.2 8.0 0.00 0.20 0.03 48 1012.4
20260507212403 18 10 3.2 8.0 0.00 0.20 0.03 52 1012.4
20260507212306 18 14 3.2 8.0 0.00 0.20 0.03 54 1012.4
20260507212203 18 13 3.2 8.0 0.00 0.20 0.03 53 1012.4
20260507212104 18 19 3.2 8.0 0.00 0.20 0.03 52 1012.4
20260507212004 18 18 1.6 8.0 0.00 0.20 0.03 50 1012.4
20260507211904 18 15 1.6 6.4 0.00 0.20 0.03 52 1012.4
20260507211803 18 315 1.6 6.4 0.00 0.20 0.03 48 1012.4
20260507211703 18 298 1.6 6.4 0.00 0.20 0.03 48 1012.5
20260507211604 18 287 1.6 6.4 0.00 0.20 0.03 53 1012.5
20260507211517 18 295 1.6 6.4 0.00 0.20 0.03 50 1012.4
20260507211503 18 296 1.6 6.4 0.00 0.20 0.03 50 1012.4
20260507211404 18 286 1.6 6.4 0.00 0.20 0.03 53 1012.4
20260507211219 18 276 1.6 4.8 0.00 0.23 0.03 57 1012.3
20260507211203 18 277 1.6 4.8 0.00 0.23 0.03 57 1012.3
20260507211118 18 279 1.6 4.8 0.00 0.23 0.03 51 1012.3
20260507211103 18 280 1.6 4.8 0.00 0.23 0.03 51 1012.3
20260507210803 18 296 1.6 8.0 0.00 0.23 0.03 50 1012.4
20260507210704 18 286 1.6 8.0 0.00 0.23 0.03 46 1012.4
20260507210603 18 279 1.6 8.0 0.00 0.23 0.03 46 1012.4
20260507210503 18 276 3.2 8.0 0.00 0.23 0.03 47 1012.4
20260507210403 18 285 3.2 8.0 0.00 0.23 0.03 47 1012.4
20260507210303 18 290 3.2 8.0 0.00 0.23 0.03 46 1012.4
20260507210203 18 294 3.2 8.0 0.00 0.23 0.03 50 1012.4
20260507210117 18 295 3.2 8.0 0.00 0.23 0.03 46 1012.4
20260507210103 18 295 3.2 8.0 0.00 0.23 0.03 49 1012.4
20260507205803 18 305 1.6 8.0 0.00 0.23 0.03 46 1012.4
20260507205704 18 318 1.6 8.0 0.00 0.23 0.03 47 1012.4
20260507205616 18 334 1.6 8.0 0.00 0.23 0.03 46 1012.4
20260507205604 18 338 1.6 8.0 0.00 0.23 0.03 46 1012.4
20260507205503 18 345 1.6 8.0 0.00 0.23 0.03 48 1012.4
20260507205306 18 3 1.6 6.4 0.00 0.23 0.03 49 1012.4
20260507205204 18 9 3.2 6.4 0.00 0.23 0.03 48 1012.4
20260507205103 18 13 3.2 8.0 0.00 0.23 0.03 49 1012.4
20260507205018 18 15 3.2 8.0 0.00 0.23 0.03 48 1012.4
20260507205003 18 15 3.2 8.0 0.00 0.23 0.03 50 1012.4
20260507204917 18 15 3.2 8.0 0.00 0.23 0.03 50 1012.4
20260507204904 18 16 3.2 8.0 0.00 0.23 0.03 52 1012.4
20260507204718 18 16 3.2 8.0 0.00 0.23 0.03 49 1012.4
20260507204603 18 18 3.2 8.0 0.00 0.23 0.03 53 1012.4
20260507204517 18 20 3.2 8.0 0.00 0.23 0.03 51 1012.4
20260507204404 18 34 3.2 8.0 0.00 0.23 0.03 47 1012.4
20260507204318 18 29 3.2 8.0 0.00 0.23 0.03 47 1012.4
20260507204203 18 112 3.2 9.7 0.00 0.23 0.03 50 1012.4
20260507204004 18 187 3.2 9.7 0.00 0.23 0.03 48 1012.4
20260507203904 18 200 3.2 9.7 0.00 0.23 0.03 50 1012.5
20260507203817 18 221 3.2 11.3 0.00 0.23 0.03 48 1012.5
20260507203803 18 226 3.2 11.3 0.00 0.23 0.03 48 1012.4
20260507203703 18 231 3.2 11.3 0.00 0.23 0.03 47 1012.4
20260507203504 18 246 3.2 11.3 0.00 0.25 0.03 46 1012.5
20260507203404 18 267 3.2 11.3 0.00 0.25 0.03 49 1012.5
20260507203303 18 275 3.2 11.3 0.00 0.25 0.03 50 1012.5
20260507203219 18 296 3.2 11.3 0.00 0.25 0.03 48 1012.5
20260507203203 18 302 3.2 11.3 0.00 0.25 0.03 49 1012.5
20260507203103 18 314 3.2 11.3 0.00 0.25 0.03 48 1012.5
20260507202903 18 315 3.2 11.3 0.00 0.28 0.03 49 1012.4
20260507202804 18 311 3.2 11.3 0.00 0.28 0.03 51 1012.4
20260507202703 18 303 3.2 11.3 0.00 0.28 0.03 47 1012.4
20260507202603 19 318 1.6 11.3 0.00 0.28 0.03 49 1012.5
20260507202503 19 328 1.6 11.3 0.00 0.28 0.03 54 1012.5
20260507202403 19 345 1.6 4.8 0.00 0.28 0.03 49 1012.5
20260507202306 19 2 3.2 8.0 0.00 0.28 0.03 50 1012.5
20260507202203 18 7 3.2 8.0 0.00 0.28 0.03 53 1012.5
20260507202103 18 9 3.2 8.0 0.00 0.28 0.03 50 1012.4
20260507202018 18 10 3.2 8.0 0.00 0.28 0.03 49 1012.4
20260507202005 18 12 3.2 8.0 0.00 0.28 0.03 50 1012.4
20260507201903 18 17 3.2 8.0 0.00 0.28 0.03 48 1012.4
20260507201703 18 15 3.2 8.0 0.00 0.28 0.03 53 1012.5
20260507201603 18 15 3.2 8.0 0.00 0.28 0.03 49 1012.4
20260507201504 18 4 3.2 12.9 0.00 0.28 0.03 48 1012.5
20260507201403 18 355 3.2 12.9 0.00 0.28 0.03 50 1012.5
20260507201303 18 346 3.2 12.9 0.00 0.28 0.03 51 1012.5
20260507201203 19 335 1.6 12.9 0.00 0.28 0.03 52 1012.5
20260507201103 19 328 1.6 12.9 0.00 0.28 0.03 52 1012.5
20260507201004 18 322 1.6 12.9 0.00 0.28 0.03 52 1012.4
20260507200918 18 314 1.6 12.9 0.00 0.28 0.03 49 1012.4
20260507200903 18 314 1.6 12.9 0.00 0.28 0.03 48 1012.4
20260507200804 19 310 1.6 12.9 0.00 0.28 0.03 50 1012.4
20260507200603 19 306 1.6 12.9 0.00 0.28 0.03 47 1012.5
20260507200503 19 304 1.6 8.0 0.00 0.28 0.03 52 1012.5
20260507200303 19 327 1.6 8.0 0.00 0.28 0.03 53 1012.5
20260507200203 19 340 1.6 8.0 0.00 0.28 0.03 51 1012.4
20260507200018 19 332 3.2 8.0 0.00 0.28 0.03 51 1012.5
20260507200003 18 331 3.2 8.0 0.00 0.28 0.03 51 1012.5
20260507195903 18 332 3.2 8.0 0.00 0.28 0.03 48 1012.5
20260507195704 18 35 1.6 8.0 0.00 0.28 0.03 49 1012.5
20260507195603 18 31 3.2 8.0 0.00 0.28 0.03 52 1012.5
20260507195503 18 32 3.2 12.9 0.00 0.28 0.03 53 1012.5
20260507195403 19 41 3.2 12.9 0.00 0.28 0.03 51 1012.5
20260507195306 19 41 3.2 12.9 0.00 0.28 0.03 54 1012.5
20260507195203 18 55 3.2 12.9 0.00 0.28 0.03 52 1012.5
20260507195117 19 44 3.2 12.9 0.00 0.28 0.03 50 1012.5
20260507195103 19 31 3.2 12.9 0.00 0.28 0.03 50 1012.5
20260507195017 19 23 3.2 12.9 0.00 0.28 0.03 57 1012.6
20260507195003 19 21 3.2 12.9 0.00 0.28 0.03 57 1012.6
20260507194703 18 15 3.2 12.9 0.00 0.28 0.03 56 1012.6
20260507194603 18 20 3.2 12.9 0.00 0.28 0.03 51 1012.6
20260507194503 18 20 3.2 9.7 0.00 0.28 0.03 57 1012.6
20260507194404 18 14 3.2 9.7 0.00 0.28 0.03 54 1012.6
20260507194303 18 11 3.2 9.7 0.00 0.28 0.03 50 1012.6
20260507194203 18 9 3.2 9.7 0.00 0.28 0.03 50 1012.6
20260507194119 18 14 3.2 9.7 0.00 0.28 0.03 53 1012.6
20260507194103 18 19 3.2 6.4 0.00 0.28 0.03 53 1012.6
20260507194004 18 19 3.2 6.4 0.00 0.28 0.03 50 1012.6
20260507193918 18 19 3.2 6.4 0.00 0.28 0.03 52 1012.6
20260507193804 18 12 3.2 6.4 0.00 0.28 0.03 54 1012.6
20260507193603 18 21 3.2 8.0 0.00 0.28 0.03 51 1012.7
20260507193503 18 19 3.2 8.0 0.00 0.28 0.03 55 1012.7
20260507193404 18 21 3.2 8.0 0.00 0.28 0.03 53 1012.7
20260507193318 18 23 3.2 8.0 0.00 0.28 0.03 52 1012.7
20260507193303 18 24 3.2 8.0 0.00 0.28 0.03 52 1012.7
20260507193218 18 27 3.2 8.0 0.00 0.28 0.03 55 1012.7
20260507193204 18 28 3.2 8.0 0.00 0.28 0.03 55 1012.7
20260507192903 18 29 3.2 8.0 0.00 0.28 0.03 56 1012.6
20260507192804 18 32 3.2 8.0 0.00 0.28 0.03 54 1012.6
20260507192717 18 29 3.2 8.0 0.00 0.28 0.03 52 1012.7
20260507192703 18 27 3.2 8.0 0.00 0.28 0.03 49 1012.7
20260507192618 18 24 3.2 8.0 0.00 0.28 0.03 50 1012.7
20260507192604 18 22 3.2 8.0 0.00 0.28 0.03 50 1012.7
20260507192306 18 21 3.2 8.0 0.00 0.28 0.03 54 1012.7
20260507192203 18 23 3.2 8.0 0.00 0.28 0.03 57 1012.7
20260507192103 18 24 3.2 8.0 0.00 0.28 0.03 52 1012.7
20260507192003 18 23 3.2 8.0 0.00 0.28 0.03 52 1012.7
20260507191918 18 22 1.6 8.0 0.00 0.28 0.03 56 1012.8
20260507191903 18 24 1.6 8.0 0.00 0.28 0.03 56 1012.8
20260507191803 18 29 1.6 8.0 0.00 0.30 0.03 55 1012.7
20260507191603 18 32 1.6 8.0 0.00 0.30 0.03 52 1012.8
20260507191516 18 37 1.6 8.0 0.00 0.30 0.03 52 1012.8
20260507191503 18 40 1.6 8.0 0.00 0.30 0.03 49 1012.8
20260507191403 18 46 1.6 8.0 0.00 0.30 0.03 48 1012.8
20260507191204 18 82 1.6 6.4 0.00 0.30 0.03 50 1012.8
20260507191104 19 107 1.6 6.4 0.00 0.33 0.03 52 1012.8
20260507191003 18 138 3.2 9.7 0.00 0.33 0.03 51 1012.9
20260507190903 19 165 3.2 9.7 0.00 0.33 0.03 53 1012.9
20260507190803 19 188 3.2 9.7 0.00 0.33 0.03 54 1012.8
20260507190703 19 198 3.2 9.7 0.00 0.33 0.03 52 1012.8
20260507190618 19 186 3.2 9.7 0.00 0.36 0.03 59 1012.8
20260507190603 19 192 3.2 9.7 0.00 0.36 0.03 59 1012.8
20260507190503 18 204 3.2 9.7 0.00 0.36 0.03 56 1012.8
20260507190303 18 215 3.2 9.7 0.00 0.36 0.03 52 1012.8
20260507190218 18 216 3.2 9.7 0.00 0.36 0.03 53 1012.8
20260507190204 18 218 3.2 9.7 0.00 0.36 0.03 53 1012.8
20260507185918 19 255 1.6 8.0 0.00 0.36 0.03 52 1012.8
20260507185903 19 261 1.6 8.0 0.00 0.36 0.03 52 1012.8
20260507185803 19 252 1.6 6.4 0.00 0.38 0.03 53 1012.7
20260507185603 18 302 1.6 4.8 0.00 0.38 0.03 53 1012.7
20260507185504 18 308 1.6 8.0 0.00 0.38 0.03 51 1012.7
20260507185403 18 299 1.6 8.0 0.00 0.38 0.03 55 1012.7
20260507185306 18 311 1.6 8.0 0.00 0.38 0.03 52 1012.8
20260507185203 18 316 1.6 8.0 0.00 0.38 0.03 53 1012.8
20260507185117 18 309 1.6 8.0 0.00 0.38 0.03 51 1012.8
20260507185103 19 310 1.6 8.0 0.00 0.38 0.03 51 1012.8
20260507185003 19 318 1.6 8.0 0.00 0.38 0.03 50 1012.8
20260507184803 19 291 1.6 8.0 0.00 0.38 0.03 57 1012.8
20260507184703 19 289 1.6 8.0 0.00 0.38 0.03 56 1012.8
20260507184618 18 285 1.6 8.0 0.00 0.38 0.03 56 1012.8
20260507184603 18 283 1.6 8.0 0.00 0.38 0.03 52 1012.8
20260507184504 18 273 1.6 4.8 0.00 0.38 0.03 50 1012.8
20260507184303 18 278 1.6 4.8 0.00 0.41 0.03 55 1012.9
20260507184204 18 273 1.6 4.8 0.00 0.41 0.03 53 1012.9
20260507184104 18 275 1.6 6.4 0.00 0.41 0.03 56 1012.9
20260507184004 18 270 1.6 6.4 0.00 0.41 0.03 53 1012.9
20260507183904 18 273 1.6 6.4 0.00 0.41 0.03 55 1012.9
20260507183803 18 275 1.6 6.4 0.00 0.41 0.03 57 1012.9
20260507183703 18 269 1.6 6.4 0.00 0.43 0.03 53 1012.9
20260507183504 18 255 1.6 6.4 0.00 0.43 0.03 60 1012.9
20260507183403 18 230 1.6 6.4 0.00 0.43 0.03 56 1012.9
20260507183304 18 148 1.6 6.4 0.00 0.43 0.03 56 1012.9
20260507183203 18 109 1.6 6.4 0.00 0.43 0.03 52 1012.9
20260507183103 18 110 1.6 6.4 0.00 0.43 0.03 53 1012.9
20260507182903 18 97 1.6 4.8 0.00 0.43 0.03 56 1012.9
20260507182803 18 90 1.6 4.8 0.00 0.43 0.03 55 1012.9
20260507182703 18 73 1.6 6.4 0.00 0.46 0.03 53 1012.9
20260507182604 18 59 1.6 6.4 0.00 0.46 0.03 57 1012.9
20260507182503 18 47 1.6 11.3 0.00 0.46 0.03 60 1012.9
20260507182403 18 37 3.2 11.3 0.00 0.46 0.03 60 1012.9
20260507182317 18 32 3.2 11.3 0.00 0.46 0.03 61 1012.9
20260507182306 18 31 3.2 11.3 0.00 0.46 0.03 59 1012.9
20260507182218 17 27 3.2 11.3 0.00 0.46 0.03 59 1012.9
20260507182203 17 27 3.2 11.3 0.00 0.46 0.03 58 1012.9
20260507182116 17 29 3.2 11.3 0.00 0.46 0.03 58 1012.9
20260507181803 17 29 4.8 11.3 0.00 0.46 0.03 56 1013.0
20260507181719 17 50 4.8 11.3 0.00 0.46 0.03 57 1012.9
20260507181704 17 58 4.8 11.3 0.00 0.46 0.03 55 1012.9
20260507181603 17 87 4.8 11.3 0.00 0.46 0.03 58 1012.9
20260507181404 17 116 3.2 11.3 0.00 0.46 0.03 60 1012.9
20260507181303 17 114 3.2 11.3 0.00 0.46 0.03 58 1012.9
20260507181203 17 112 3.2 11.3 0.00 0.46 0.03 56 1012.9
20260507181104 17 86 3.2 11.3 0.00 0.46 0.03 60 1012.9
20260507181003 17 132 3.2 11.3 0.00 0.46 0.03 55 1012.9
20260507180917 17 133 3.2 11.3 0.00 0.46 0.03 56 1012.9
20260507180903 17 128 3.2 11.3 0.00 0.46 0.03 56 1012.9
20260507180804 17 76 3.2 11.3 0.00 0.46 0.03 54 1012.9
20260507180603 17 3 1.6 8.0 0.00 0.46 0.03 54 1013.2
20260507180503 17 5 1.6 8.0 0.00 0.46 0.03 54 1013.2
20260507180418 17 7 1.6 8.0 0.00 0.46 0.03 54 1013.2
20260507180403 17 8 1.6 8.0 0.00 0.46 0.03 54 1013.2
20260507180304 17 352 1.6 8.0 0.00 0.46 0.03 55 1013.2
20260507180218 18 214 1.6 6.4 0.00 0.46 0.03 59 1013.2
20260507180104 17 179 1.6 4.8 0.00 0.46 0.03 56 1013.2
20260507180017 17 79 1.6 9.7 0.00 0.46 0.03 58 1013.2
20260507175903 17 84 1.6 9.7 0.00 0.46 0.03 59 1013.2
20260507175717 17 11 1.6 9.7 0.00 0.46 0.03 58 1013.2
20260507175703 17 14 1.6 9.7 0.00 0.46 0.03 58 1013.2
20260507175603 17 19 1.6 9.7 0.00 0.46 0.03 56 1013.2
20260507175518 17 19 3.2 9.7 0.00 0.46 0.03 55 1013.2
20260507175403 17 13 3.2 11.3 0.00 0.46 0.03 56 1013.3
20260507175204 17 9 3.2 11.3 0.00 0.46 0.03 56 1013.3
20260507175103 18 8 3.2 11.3 0.00 0.46 0.03 62 1013.4
20260507175004 18 6 3.2 11.3 0.00 0.46 0.03 57 1013.4
20260507174903 18 344 3.2 11.3 0.00 0.46 0.03 56 1013.4
20260507174803 18 350 3.2 11.3 0.00 0.46 0.03 54 1013.4
20260507174703 18 8 3.2 11.3 0.00 0.46 0.03 50 1013.4
20260507174603 18 354 3.2 11.3 0.00 0.46 0.03 57 1013.5
20260507174504 18 341 1.6 11.3 0.00 0.46 0.03 53 1013.5
20260507174416 18 204 3.2 11.3 0.00 0.46 0.03 53 1013.5
20260507174403 18 191 3.2 11.3 0.00 0.46 0.03 53 1013.5
20260507174304 18 188 3.2 11.3 0.00 0.46 0.03 54 1013.5
20260507174218 18 196 3.2 11.3 0.00 0.46 0.03 54 1013.5
20260507174104 18 266 3.2 11.3 0.00 0.46 0.03 55 1013.7
20260507174019 18 288 3.2 11.3 0.00 0.46 0.03 57 1013.7
20260507173903 18 309 3.2 11.3 0.00 0.46 0.03 60 1013.6
20260507173704 18 302 3.2 14.5 0.00 0.46 0.03 54 1013.6
20260507173604 18 293 3.2 14.5 0.00 0.46 0.03 56 1013.6
20260507173503 18 279 3.2 14.5 0.00 0.46 0.03 53 1013.6
20260507173403 18 284 3.2 14.5 0.00 0.46 0.03 56 1013.6
20260507173303 18 279 3.2 14.5 0.00 0.46 0.03 55 1013.7
20260507173203 18 279 1.6 14.5 0.00 0.46 0.03 56 1013.7
20260507173104 18 282 1.6 14.5 0.00 0.46 0.03 54 1013.7
20260507172903 18 309 1.6 14.5 0.00 0.46 0.03 54 1013.6
20260507172804 18 330 1.6 14.5 0.00 0.46 0.03 59 1013.6
20260507172716 18 63 1.6 6.4 0.00 0.46 0.03 56 1013.6
20260507172703 18 59 1.6 6.4 0.00 0.46 0.03 56 1013.6
20260507172617 18 41 3.2 6.4 0.00 0.46 0.03 56 1013.6
20260507172604 18 42 3.2 6.4 0.00 0.46 0.03 56 1013.6
20260507172307 17 30 3.2 8.0 0.00 0.46 0.03 59 1013.6
20260507172203 17 28 3.2 8.0 0.00 0.46 0.03 58 1013.6
20260507172118 17 27 3.2 8.0 0.00 0.46 0.03 58 1013.6
20260507172103 17 28 3.2 8.0 0.00 0.46 0.03 58 1013.6
20260507171803 18 24 3.2 12.9 0.00 0.46 0.03 56 1013.6
20260507171704 18 20 3.2 12.9 0.00 0.46 0.03 59 1013.6
20260507171603 18 20 3.2 12.9 0.00 0.46 0.03 60 1013.6
20260507171503 18 17 3.2 12.9 0.00 0.46 0.03 58 1013.6
20260507171403 18 19 3.2 12.9 0.00 0.46 0.03 57 1013.5
20260507171303 18 18 3.2 12.9 0.00 0.46 0.03 62 1013.5
20260507171219 18 20 3.2 12.9 0.00 0.46 0.03 62 1013.6
20260507171203 18 20 3.2 12.9 0.00 0.46 0.03 61 1013.6
20260507171118 18 19 4.8 12.9 0.00 0.46 0.03 59 1013.6
20260507171103 18 18 4.8 12.9 0.00 0.46 0.03 59 1013.6
20260507170803 18 10 4.8 11.3 0.00 0.46 0.03 61 1013.6
20260507170704 18 10 4.8 11.3 0.00 0.46 0.03 59 1013.5
20260507170604 18 6 3.2 11.3 0.00 0.46 0.03 57 1013.5
20260507170504 18 5 3.2 11.3 0.00 0.46 0.03 57 1013.6
20260507170403 18 358 3.2 11.3 0.00 0.46 0.03 56 1013.7
20260507170304 18 351 3.2 11.3 0.00 0.46 0.03 58 1013.7
20260507170204 18 337 3.2 11.3 0.00 0.46 0.03 58 1013.7
20260507170118 18 333 3.2 11.3 0.00 0.46 0.03 58 1013.7
20260507170103 18 334 3.2 11.3 0.00 0.46 0.03 56 1013.7
20260507170003 18 333 3.2 6.4 0.00 0.46 0.03 57 1013.7
20260507165803 18 307 3.2 6.4 0.00 0.46 0.03 56 1013.7
20260507165703 18 282 3.2 6.4 0.00 0.46 0.03 57 1013.7
20260507165604 18 282 3.2 6.4 0.00 0.46 0.03 61 1013.7
20260507165519 18 286 3.2 6.4 0.00 0.46 0.03 61 1013.7
20260507165504 18 288 3.2 6.4 0.00 0.46 0.03 59 1013.7
20260507165418 18 293 3.2 6.4 0.00 0.46 0.03 59 1013.6
20260507165403 18 295 3.2 6.4 0.00 0.46 0.03 57 1013.6
20260507165317 18 299 3.2 6.4 0.00 0.46 0.03 59 1013.6
20260507165118 18 298 1.6 6.4 0.00 0.46 0.03 60 1013.7
20260507165003 18 284 1.6 6.4 0.00 0.46 0.03 60 1013.6
20260507164803 17 314 1.6 8.0 0.00 0.46 0.03 61 1013.7
20260507164704 17 349 1.6 8.0 0.00 0.46 0.03 63 1013.8
20260507164603 17 5 1.6 8.0 0.00 0.46 0.03 64 1013.8
20260507164503 17 5 1.6 8.0 0.00 0.46 0.03 67 1013.8
20260507164403 17 8 1.6 8.0 0.00 0.46 0.03 64 1013.8
20260507164303 17 3 3.2 8.0 0.00 0.46 0.03 61 1013.8
20260507164203 17 14 3.2 8.0 0.00 0.46 0.03 62 1013.7
20260507164103 17 19 3.2 8.0 0.00 0.46 0.03 63 1013.6
20260507164003 17 21 3.2 8.0 0.00 0.46 0.03 60 1013.6
20260507163903 17 27 3.2 8.0 0.00 0.46 0.03 59 1013.6
20260507163803 17 33 3.2 8.0 0.00 0.46 0.03 60 1013.7
20260507163718 17 34 3.2 8.0 0.00 0.46 0.03 61 1013.7
20260507163704 17 35 3.2 8.0 0.00 0.46 0.03 65 1013.7
20260507163604 17 119 3.2 8.0 0.00 0.46 0.03 63 1013.8
20260507163403 17 49 3.2 8.0 0.00 0.46 0.03 60 1013.9
20260507163303 17 47 1.6 8.0 0.00 0.46 0.03 63 1014.0
20260507163204 17 47 1.6 8.0 0.00 0.46 0.03 64 1014.0
20260507163103 17 49 1.6 8.0 0.00 0.46 0.03 65 1013.9
20260507163003 17 59 1.6 8.0 0.00 0.46 0.03 62 1013.9
20260507162903 17 48 1.6 8.0 0.00 0.46 0.03 62 1013.9
20260507162803 17 30 1.6 8.0 0.00 0.46 0.03 61 1013.9
20260507162718 17 34 1.6 8.0 0.00 0.46 0.03 61 1013.9
20260507162703 17 33 1.6 8.0 0.00 0.46 0.03 61 1013.9
20260507162603 17 33 1.6 6.4 0.00 0.46 0.03 61 1013.9
20260507162517 17 37 3.2 6.4 0.00 0.46 0.03 61 1013.9
20260507162403 17 41 3.2 6.4 0.00 0.46 0.03 63 1013.8
20260507162203 17 67 3.2 6.4 0.00 0.46 0.03 63 1013.8
20260507162103 17 63 3.2 6.4 0.00 0.46 0.03 59 1013.8
20260507162003 17 26 3.2 11.3 0.00 0.46 0.03 68 1013.9
20260507161903 17 20 3.2 11.3 0.00 0.46 0.03 63 1013.9
20260507161803 17 35 3.2 11.3 0.00 0.46 0.03 65 1013.9
20260507161703 17 37 3.2 11.3 0.00 0.46 0.03 62 1013.9
20260507161604 16 40 3.2 11.3 0.00 0.46 0.03 65 1013.9
20260507161504 16 21 3.2 11.3 0.00 0.46 0.03 64 1013.9
20260507161403 16 32 3.2 11.3 0.00 0.46 0.03 61 1013.9
20260507161303 16 17 3.2 11.3 0.00 0.46 0.03 63 1014.0
20260507161203 16 20 1.6 11.3 0.00 0.46 0.03 64 1014.0
20260507161103 16 37 1.6 11.3 0.00 0.46 0.03 64 1014.0
20260507161003 16 185 1.6 9.7 0.00 0.46 0.03 63 1014.0
20260507160903 16 199 1.6 9.7 0.00 0.46 0.03 67 1014.0
20260507160803 16 218 1.6 8.0 0.00 0.46 0.03 65 1014.0
20260507160704 16 232 1.6 8.0 0.00 0.46 0.03 65 1014.0
20260507160603 16 230 1.6 4.8 0.00 0.46 0.03 65 1014.0
20260507160504 16 231 1.6 4.8 0.00 0.46 0.03 64 1014.0
20260507160404 16 296 1.6 9.7 0.00 0.46 0.03 62 1014.0
20260507160303 16 338 3.2 12.9 0.00 0.46 0.03 63 1014.0
20260507160204 16 357 3.2 12.9 0.00 0.46 0.03 64 1014.1
20260507160003 16 9 3.2 12.9 0.00 0.46 0.03 63 1014.2
20260507155904 16 19 3.2 12.9 0.00 0.46 0.03 64 1014.2
20260507155803 16 22 3.2 12.9 0.00 0.46 0.03 63 1014.1
20260507155718 16 26 4.8 12.9 0.00 0.46 0.03 64 1014.1
20260507155704 16 25 4.8 12.9 0.00 0.46 0.03 65 1014.1
20260507155604 16 26 4.8 12.9 0.00 0.46 0.03 63 1014.1
20260507155403 16 25 3.2 12.9 0.00 0.46 0.03 62 1014.1
20260507155306 17 27 3.2 11.3 0.00 0.46 0.03 62 1014.0
20260507155204 17 24 3.2 11.3 0.00 0.46 0.03 65 1014.0
20260507155003 16 28 3.2 11.3 0.00 0.46 0.03 62 1013.9
20260507154903 16 25 3.2 11.3 0.00 0.46 0.03 62 1014.0
20260507154803 16 26 3.2 11.3 0.00 0.46 0.03 63 1014.0
20260507154703 16 27 3.2 8.0 0.00 0.46 0.03 64 1014.0
20260507154503 16 29 3.2 11.3 0.00 0.46 0.03 65 1014.0
20260507154404 16 29 3.2 11.3 0.00 0.46 0.03 63 1014.0
20260507154304 16 28 3.2 11.3 0.00 0.46 0.03 66 1014.0
20260507154204 16 30 3.2 11.3 0.00 0.46 0.03 65 1014.1
20260507154103 16 30 3.2 11.3 0.00 0.46 0.03 63 1014.1
20260507154003 16 28 3.2 11.3 0.00 0.46 0.03 65 1014.1
20260507153903 16 27 3.2 11.3 0.00 0.46 0.03 61 1014.1
20260507153804 16 27 3.2 11.3 0.00 0.46 0.03 62 1014.1
20260507153703 16 26 3.2 11.3 0.00 0.46 0.03 61 1014.2
20260507153604 17 22 1.6 11.3 0.00 0.46 0.03 64 1014.2
20260507153403 16 19 3.2 11.3 0.00 0.46 0.03 68 1014.2
20260507153304 16 17 3.2 11.3 0.00 0.46 0.03 69 1014.2
20260507153204 16 20 3.2 11.3 0.00 0.46 0.03 70 1014.1
20260507153104 16 16 3.2 11.3 0.00 0.46 0.03 70 1014.1
20260507152903 16 13 3.2 11.3 0.00 0.46 0.03 68 1014.0
20260507152817 16 16 3.2 11.3 0.00 0.46 0.03 66 1014.0
20260507152804 16 17 3.2 11.3 0.00 0.46 0.03 67 1014.0
20260507152718 16 20 3.2 11.3 0.00 0.46 0.03 67 1014.0
20260507152704 16 21 3.2 11.3 0.00 0.46 0.03 69 1014.0
20260507152418 16 45 3.2 9.7 0.00 0.46 0.03 66 1014.0
20260507152403 16 43 3.2 9.7 0.00 0.46 0.03 66 1014.0
20260507152306 16 45 3.2 9.7 0.00 0.46 0.03 64 1014.0
20260507152217 16 39 3.2 9.7 0.00 0.46 0.03 67 1014.0
20260507152103 16 43 3.2 9.7 0.00 0.46 0.03 64 1014.0
20260507151904 16 46 3.2 9.7 0.00 0.46 0.03 66 1014.0
20260507151803 16 39 3.2 11.3 0.00 0.46 0.03 65 1014.0
20260507151703 16 32 3.2 11.3 0.00 0.46 0.03 65 1013.9
20260507151618 16 30 3.2 11.3 0.00 0.46 0.03 65 1013.9
20260507151604 16 27 3.2 11.3 0.00 0.46 0.03 67 1013.9
20260507151519 16 28 3.2 11.3 0.00 0.46 0.03 67 1013.9
20260507151504 16 28 3.2 11.3 0.00 0.46 0.03 68 1013.9
20260507151217 16 24 3.2 11.3 0.00 0.46 0.03 64 1013.9
20260507151204 16 25 3.2 11.3 0.00 0.46 0.03 64 1013.9
20260507151117 16 23 3.2 11.3 0.00 0.46 0.03 66 1013.9
20260507151103 16 21 3.2 11.3 0.00 0.46 0.03 66 1013.9
20260507150803 16 17 3.2 8.0 0.00 0.46 0.03 64 1014.0
20260507150703 16 20 3.2 8.0 0.00 0.46 0.03 64 1014.0
20260507150603 16 18 3.2 8.0 0.00 0.46 0.03 65 1014.1
20260507150503 16 17 3.2 8.0 0.00 0.46 0.03 67 1014.1
20260507150403 16 30 3.2 8.0 0.00 0.46 0.03 68 1014.1
20260507150204 16 19 3.2 8.0 0.00 0.46 0.03 67 1014.0
20260507150003 16 10 3.2 8.0 0.00 0.46 0.03 68 1013.9
20260507145904 16 6 3.2 6.4 0.00 0.46 0.03 68 1013.9
20260507145803 16 12 3.2 6.4 0.00 0.46 0.03 67 1014.0
20260507145703 16 4 3.2 6.4 0.00 0.46 0.03 71 1014.0
20260507145603 16 7 3.2 6.4 0.00 0.46 0.03 69 1013.9
20260507145504 16 8 3.2 6.4 0.00 0.46 0.03 68 1013.9
20260507145404 16 6 3.2 8.0 0.00 0.46 0.03 71 1013.9
20260507145306 15 11 3.2 8.0 0.00 0.46 0.03 70 1013.9
20260507145203 15 19 3.2 8.0 0.00 0.46 0.03 72 1013.9
20260507145104 15 23 3.2 8.0 0.00 0.46 0.03 71 1013.9
20260507145003 15 23 3.2 8.0 0.00 0.46 0.03 72 1014.0
20260507144903 15 24 3.2 8.0 0.00 0.46 0.03 70 1014.0
20260507144804 15 24 3.2 8.0 0.00 0.46 0.03 68 1014.0
20260507144703 15 29 3.2 8.0 0.00 0.46 0.03 68 1014.0
20260507144603 15 27 3.2 8.0 0.00 0.46 0.03 67 1013.9
20260507144504 15 28 3.2 8.0 0.00 0.46 0.03 69 1013.9
20260507144404 15 35 3.2 6.4 0.00 0.46 0.03 68 1013.9
20260507144304 15 34 3.2 6.4 0.00 0.46 0.03 70 1013.9
20260507144203 15 36 3.2 6.4 0.00 0.46 0.03 69 1013.9
20260507144004 15 29 3.2 8.0 0.00 0.46 0.03 71 1013.9
20260507143904 15 23 3.2 8.0 0.00 0.46 0.03 71 1013.9
20260507143803 15 18 3.2 8.0 0.00 0.46 0.03 69 1013.9
20260507143703 15 15 3.2 8.0 0.00 0.46 0.03 68 1014.0
20260507143603 15 14 3.2 8.0 0.00 0.46 0.03 69 1014.0
20260507143503 15 12 3.2 8.0 0.00 0.46 0.03 73 1013.9
20260507143417 15 6 3.2 8.0 0.00 0.46 0.03 73 1013.9
20260507143303 15 4 3.2 8.0 0.00 0.46 0.03 69 1013.8
20260507143003 15 12 3.2 9.7 0.00 0.46 0.03 73 1013.9
20260507142904 15 21 3.2 9.7 0.00 0.46 0.03 71 1013.9
20260507142803 15 26 3.2 9.7 0.00 0.46 0.03 70 1014.0
20260507142703 15 26 3.2 9.7 0.00 0.46 0.03 71 1013.9
20260507142618 15 24 3.2 9.7 0.00 0.46 0.03 71 1013.9
20260507142603 15 23 3.2 9.7 0.00 0.46 0.03 71 1013.9
20260507142503 15 20 3.2 9.7 0.00 0.46 0.03 71 1013.9
20260507142306 15 20 3.2 9.7 0.00 0.46 0.03 72 1013.9
20260507142204 15 18 3.2 9.7 0.00 0.46 0.03 71 1013.8
20260507142117 15 16 3.2 9.7 0.00 0.46 0.03 74 1013.8
20260507142104 15 17 3.2 9.7 0.00 0.46 0.03 74 1013.8
20260507142003 15 17 3.2 8.0 0.00 0.46 0.03 74 1013.8
20260507141819 15 19 3.2 8.0 0.00 0.46 0.03 74 1013.8
20260507141803 15 21 3.2 8.0 0.00 0.46 0.03 74 1013.8
20260507141703 15 23 3.2 8.0 0.00 0.46 0.03 73 1013.7
20260507141504 15 28 3.2 8.0 0.00 0.46 0.03 75 1013.8
20260507141403 14 30 3.2 8.0 0.00 0.46 0.03 75 1013.7
20260507141304 14 32 3.2 8.0 0.00 0.46 0.03 73 1013.7
20260507141203 14 30 3.2 8.0 0.00 0.46 0.03 75 1013.7
20260507141003 14 26 3.2 8.0 0.00 0.46 0.03 73 1013.6
20260507140903 14 23 3.2 8.0 0.00 0.46 0.03 73 1013.7
20260507140803 14 16 3.2 8.0 0.00 0.46 0.03 75 1013.7
20260507140704 14 17 3.2 8.0 0.00 0.46 0.03 74 1013.7
20260507140603 14 15 3.2 9.7 0.00 0.46 0.03 74 1013.8
20260507140504 14 14 3.2 9.7 0.00 0.46 0.03 75 1013.8
20260507140403 14 15 3.2 9.7 0.00 0.46 0.03 74 1013.7
20260507140303 14 16 3.2 9.7 0.00 0.46 0.03 74 1013.7
20260507140204 14 18 3.2 9.7 0.00 0.46 0.03 76 1013.7
20260507140004 14 21 3.2 9.7 0.00 0.46 0.03 76 1013.7
20260507135903 14 21 1.6 9.7 0.00 0.46 0.03 77 1013.7
20260507135804 14 24 1.6 9.7 0.00 0.46 0.03 78 1013.7
20260507135704 14 21 1.6 9.7 0.00 0.46 0.03 79 1013.6
20260507135603 14 20 1.6 6.4 0.00 0.46 0.03 77 1013.6
20260507135503 13 23 1.6 6.4 0.00 0.46 0.03 77 1013.6
20260507135403 13 22 1.6 6.4 0.00 0.46 0.03 78 1013.5
20260507135318 13 20 1.6 6.4 0.00 0.46 0.03 78 1013.5
20260507135306 13 20 1.6 6.4 0.00 0.46 0.03 76 1013.6
20260507135218 13 21 1.6 9.7 0.00 0.46 0.03 78 1013.6
20260507135203 13 20 1.6 9.7 0.00 0.46 0.03 78 1013.6
20260507134904 13 8 1.6 9.7 0.00 0.46 0.03 77 1013.6
20260507134803 13 8 3.2 9.7 0.00 0.46 0.03 76 1013.6
20260507134717 13 9 1.6 9.7 0.00 0.46 0.03 76 1013.6
20260507134703 13 9 1.6 9.7 0.00 0.46 0.03 75 1013.6
20260507134603 13 8 1.6 9.7 0.00 0.46 0.03 75 1013.6
20260507134403 13 6 3.2 9.7 0.00 0.46 0.03 77 1013.6
20260507134304 13 16 1.6 9.7 0.00 0.46 0.03 76 1013.6
20260507134204 13 26 1.6 4.8 0.00 0.46 0.03 79 1013.6
20260507134119 13 41 1.6 4.8 0.00 0.46 0.03 79 1013.6
20260507134103 13 45 1.6 4.8 0.00 0.46 0.03 80 1013.6
20260507134003 13 44 3.2 4.8 0.00 0.48 0.03 80 1013.6
20260507133918 13 47 3.2 4.8 0.00 0.48 0.03 79 1013.5
20260507133603 13 43 3.2 4.8 0.00 0.48 0.03 79 1013.6
20260507133503 13 46 1.6 4.8 0.00 0.48 0.03 79 1013.6
20260507133403 13 51 1.6 4.8 0.00 0.48 0.03 80 1013.6
20260507133304 13 41 1.6 4.8 0.00 0.48 0.03 80 1013.5
20260507133203 13 26 1.6 6.4 0.00 0.48 0.03 80 1013.5
20260507133104 13 15 1.6 6.4 0.00 0.48 0.03 82 1013.6
20260507133003 13 15 1.6 6.4 0.00 0.48 0.03 82 1013.5
20260507132904 13 14 1.6 6.4 0.00 0.48 0.03 83 1013.5
20260507132804 13 14 1.6 6.4 0.00 0.51 0.03 84 1013.5
20260507132704 13 23 1.6 6.4 0.00 0.51 0.03 83 1013.5
20260507132604 13 31 1.6 6.4 0.00 0.51 0.03 83 1013.5
20260507132503 13 35 1.6 6.4 0.00 0.51 0.03 82 1013.5
20260507132403 13 40 1.6 6.4 0.00 0.51 0.03 82 1013.5
20260507132307 13 46 1.6 6.4 0.00 0.51 0.03 83 1013.5
20260507132203 13 49 1.6 4.8 0.00 0.53 0.03 84 1013.5
20260507132103 13 47 1.6 4.8 0.00 0.53 0.03 83 1013.5
20260507132003 13 46 1.6 4.8 0.00 0.56 0.03 83 1013.5
20260507131903 13 46 1.6 4.8 0.00 0.56 0.03 82 1013.5
20260507131803 13 48 1.6 4.8 0.00 0.58 0.03 82 1013.5
20260507131703 12 41 1.6 4.8 0.00 0.58 0.03 82 1013.4
20260507131603 12 34 1.6 6.4 0.00 0.58 0.03 82 1013.4
20260507131503 12 30 1.6 6.4 0.00 0.61 0.03 83 1013.5
20260507131404 12 25 1.6 6.4 0.00 0.61 0.03 83 1013.5
20260507131303 12 21 1.6 6.4 0.00 0.61 0.03 85 1013.5
20260507131218 12 18 1.6 6.4 0.00 0.61 0.03 85 1013.5
20260507131203 12 18 1.6 6.4 0.00 0.61 0.03 86 1013.4
20260507131118 12 17 1.6 6.4 0.00 0.61 0.03 86 1013.4
20260507131103 12 18 1.6 6.4 0.00 0.61 0.03 86 1013.4
20260507130803 12 19 3.2 8.0 0.00 0.61 0.03 84 1013.4
20260507130704 12 21 1.6 8.0 0.00 0.61 0.03 86 1013.5
20260507130504 12 29 1.6 8.0 0.00 0.64 0.03 86 1013.5
20260507130404 12 29 1.6 8.0 0.00 0.64 0.03 87 1013.6
20260507130304 12 30 1.6 8.0 0.00 0.64 0.03 86 1013.6
20260507130203 12 30 1.6 8.0 0.00 0.64 0.03 87 1013.5
20260507130005 12 38 1.6 8.0 0.00 0.64 0.03 88 1013.5
20260507125904 12 41 1.6 8.0 0.00 0.64 0.03 88 1013.5
20260507125803 12 42 1.6 4.8 0.00 0.64 0.03 88 1013.5
20260507125703 12 42 1.6 4.8 0.00 0.64 0.03 89 1013.5
20260507125603 12 47 1.6 8.0 0.00 0.64 0.03 89 1013.5
20260507125503 12 43 1.6 8.0 0.00 0.64 0.03 89 1013.5
20260507125403 11 39 1.6 8.0 0.00 0.64 0.03 89 1013.5
20260507125317 11 33 1.6 8.0 0.00 0.64 0.03 89 1013.5
20260507125306 11 32 1.6 8.0 0.00 0.64 0.03 89 1013.5
20260507125203 11 34 1.6 8.0 0.00 0.64 0.03 89 1013.5
20260507125118 11 30 3.2 8.0 0.00 0.64 0.03 90 1013.5
20260507125003 11 29 3.2 8.0 0.00 0.64 0.03 90 1013.5
20260507124818 11 27 1.6 8.0 0.00 0.64 0.03 90 1013.5
20260507124703 11 25 1.6 8.0 0.00 0.64 0.03 91 1013.5
20260507124503 11 18 1.6 6.4 0.00 0.64 0.03 92 1013.5
20260507124416 11 21 1.6 6.4 0.00 0.64 0.03 92 1013.5
20260507124403 11 23 1.6 6.4 0.00 0.64 0.03 92 1013.5
20260507124318 11 27 1.6 6.4 0.00 0.64 0.03 92 1013.5
20260507124303 11 28 1.6 6.4 0.00 0.64 0.03 93 1013.5
20260507124003 11 24 1.6 4.8 0.00 0.64 0.03 93 1013.5
20260507123904 11 23 1.6 4.8 0.00 0.64 0.03 93 1013.5
20260507123804 11 21 1.6 4.8 0.00 0.64 0.03 94 1013.5
20260507123703 11 16 1.6 4.8 0.00 0.64 0.03 94 1013.4
20260507123603 11 16 1.6 4.8 0.00 0.64 0.03 94 1013.3
20260507123503 11 15 1.6 4.8 0.00 0.64 0.03 94 1013.3
20260507123404 10 15 1.6 4.8 0.00 0.64 0.03 94 1013.3
20260507123303 10 19 1.6 4.8 0.00 0.64 0.03 94 1013.3
20260507123103 10 66 1.6 4.8 0.00 0.64 0.03 94 1013.4
20260507123003 10 102 1.6 4.8 0.00 0.64 0.03 95 1013.4
20260507122904 10 138 1.6 4.8 0.00 0.64 0.03 95 1013.4
20260507122803 10 166 1.6 4.8 0.00 0.64 0.03 95 1013.5
20260507122705 10 170 0.0 4.8 0.00 0.64 0.03 95 1013.5
20260507122604 10 176 1.6 4.8 0.00 0.64 0.03 95 1013.4
20260507122503 10 176 0.0 4.8 0.00 0.64 0.03 95 1013.4
20260507122404 10 176 0.0 4.8 0.00 0.64 0.03 95 1013.5
20260507122306 10 176 0.0 4.8 0.00 0.64 0.03 95 1013.5
20260507122204 10 176 0.0 3.2 0.00 0.64 0.03 95 1013.5
20260507122103 10 176 0.0 3.2 0.00 0.64 0.03 95 1013.4
20260507122005 10 176 0.0 3.2 0.00 0.64 0.03 95 1013.4
20260507121703 10 176 0.0 3.2 0.00 0.64 0.03 95 1013.4
20260507121603 10 176 0.0 3.2 0.00 0.64 0.03 95 1013.5
20260507121504 10 0 0.0 0.0 0.00 0.64 0.03 95 1013.5
20260507121304 10 0 0.0 0.0 0.00 0.64 0.03 95 1013.4
20260507121203 10 0 0.0 0.0 0.00 0.64 0.03 95 1013.4
20260507121103 10 0 0.0 0.0 0.00 0.64 0.03 95 1013.5
20260507120903 10 0 0.0 0.0 0.00 0.64 0.03 95 1013.4
20260507120803 10 0 0.0 0.0 0.00 0.64 0.03 95 1013.3
20260507120703 10 0 0.0 0.0 0.00 0.64 0.03 95 1013.3
20260507120603 10 0 0.0 0.0 0.00 0.64 0.03 95 1013.3
20260507120503 10 176 0.0 1.6 0.00 0.64 0.03 95 1013.4
20260507120403 10 176 0.0 1.6 0.00 0.64 0.03 95 1013.4
20260507120303 10 176 0.0 3.2 0.00 0.64 0.03 95 1013.3
20260507120203 10 176 0.0 3.2 0.00 0.64 0.03 95 1013.3
20260507120103 10 176 0.0 3.2 0.00 0.64 0.03 95 1013.3
20260507120004 10 176 0.0 3.2 0.00 0.64 0.03 95 1013.3
20260507115904 10 176 0.0 3.2 0.00 0.64 0.03 95 1013.3
20260507115617 10 176 1.6 3.2 0.00 0.64 0.03 95 1013.4
20260507115603 9 176 1.6 3.2 0.00 0.64 0.03 95 1013.4
20260507115504 9 176 0.0 3.2 0.00 0.64 0.03 95 1013.4
20260507115203 9 176 0.0 1.6 0.00 0.64 0.03 95 1013.3
20260507115103 9 176 0.0 1.6 0.00 0.64 0.03 95 1013.3
20260507115004 9 176 0.0 1.6 0.00 0.64 0.03 95 1013.3
20260507114903 9 176 0.0 3.2 0.00 0.64 0.03 94 1013.3
20260507114803 9 176 0.0 3.2 0.00 0.64 0.03 95 1013.3
20260507114703 9 176 0.0 3.2 0.00 0.64 0.03 94 1013.2
20260507114604 9 176 0.0 3.2 0.00 0.64 0.03 94 1013.2
20260507114503 9 176 0.0 3.2 0.00 0.64 0.03 94 1013.3
20260507114403 9 176 0.0 3.2 0.00 0.64 0.03 94 1013.3
20260507114303 9 176 0.0 3.2 0.00 0.64 0.03 94 1013.3
20260507114219 9 176 0.0 3.2 0.00 0.64 0.03 94 1013.3
20260507114103 9 176 0.0 3.2 0.00 0.64 0.03 94 1013.3
20260507113904 9 0 0.0 0.0 0.00 0.64 0.03 94 1013.2
20260507113803 9 0 0.0 0.0 0.00 0.64 0.03 94 1013.2
20260507113704 9 0 0.0 0.0 0.00 0.64 0.03 94 1013.2
20260507113603 9 0 0.0 0.0 0.00 0.64 0.03 94 1013.2
20260507113503 9 0 0.0 0.0 0.00 0.64 0.03 94 1013.2
20260507113403 9 0 0.0 0.0 0.00 0.64 0.03 94 1013.1
20260507113304 9 0 0.0 0.0 0.00 0.64 0.03 94 1013.1
20260507113203 9 0 0.0 0.0 0.00 0.64 0.03 94 1013.0
20260507113104 9 0 0.0 0.0 0.00 0.64 0.03 94 1013.0
20260507113005 9 0 0.0 0.0 0.00 0.64 0.03 94 1013.0
20260507112904 9 0 0.0 0.0 0.00 0.64 0.03 94 1013.1
20260507112804 9 0 0.0 0.0 0.00 0.64 0.03 94 1013.1
20260507112703 9 0 0.0 0.0 0.00 0.64 0.03 94 1013.0
20260507112603 9 0 0.0 0.0 0.00 0.64 0.03 94 1013.0
20260507112504 9 0 0.0 0.0 0.00 0.64 0.03 94 1012.9
20260507112403 9 0 0.0 0.0 0.00 0.64 0.03 94 1012.9
20260507112204 9 0 0.0 0.0 0.00 0.64 0.03 94 1012.8
20260507112103 9 0 0.0 0.0 0.00 0.64 0.03 94 1012.8
20260507112004 9 0 0.0 0.0 0.00 0.64 0.03 94 1012.8
20260507111803 9 0 0.0 0.0 0.00 0.64 0.03 94 1012.8
20260507111703 9 0 0.0 0.0 0.00 0.64 0.03 94 1012.7
20260507111604 9 0 0.0 0.0 0.00 0.64 0.03 94 1012.7
20260507111506 9 0 0.0 0.0 0.00 0.64 0.03 94 1012.7
20260507111303 9 0 0.0 0.0 0.00 0.64 0.03 94 1012.6
20260507111217 9 0 0.0 0.0 0.00 0.64 0.03 94 1012.6
20260507111204 10 0 0.0 0.0 0.00 0.64 0.03 94 1012.6
20260507111104 10 0 0.0 0.0 0.00 0.64 0.03 94 1012.6
20260507110904 10 0 0.0 0.0 0.00 0.64 0.03 94 1012.6
20260507110804 10 0 0.0 0.0 0.00 0.64 0.03 94 1012.6
20260507110703 10 0 0.0 0.0 0.00 0.64 0.03 94 1012.6
20260507110603 10 0 0.0 0.0 0.00 0.64 0.03 94 1012.6
20260507110503 10 0 0.0 0.0 0.00 0.64 0.03 94 1012.6
20260507110203 10 176 0.0 1.6 0.00 0.64 0.03 94 1012.5
20260507110103 10 176 0.0 1.6 0.00 0.64 0.03 94 1012.5
20260507110003 10 176 0.0 1.6 0.00 0.64 0.03 94 1012.5
20260507105904 10 176 0.0 1.6 0.00 0.64 0.03 94 1012.4
20260507105804 10 176 0.0 1.6 0.00 0.64 0.03 94 1012.4
20260507105703 10 176 0.0 1.6 0.00 0.64 0.03 94 1012.4
20260507105603 10 176 0.0 1.6 0.00 0.64 0.03 94 1012.3
20260507105504 10 176 0.0 1.6 0.00 0.66 0.03 94 1012.3
20260507105403 10 176 0.0 1.6 0.00 0.69 0.03 94 1012.2
20260507105306 10 176 0.0 1.6 0.00 0.76 0.03 94 1012.2
20260507105203 10 176 0.0 1.6 0.00 0.76 0.03 94 1012.2
20260507105103 10 176 0.0 1.6 0.00 0.79 0.03 94 1012.2
20260507105004 10 176 0.0 1.6 0.00 0.79 0.03 94 1012.2
20260507104704 10 176 0.0 1.6 0.00 0.81 0.03 94 1012.2
20260507104603 10 176 0.0 1.6 0.00 0.81 0.03 94 1012.2
20260507104504 10 176 0.0 1.6 0.00 0.81 0.03 94 1012.2
20260507104403 10 176 0.0 4.8 0.00 0.84 0.03 94 1012.2
20260507104316 10 176 0.0 4.8 0.00 0.84 0.03 94 1012.2
20260507104204 10 176 0.0 4.8 0.00 0.84 0.03 94 1012.2
20260507104004 10 176 1.6 4.8 0.00 0.84 0.03 94 1012.3
20260507103904 10 176 0.0 4.8 0.00 0.84 0.03 94 1012.3
20260507103804 10 176 0.0 4.8 0.00 0.84 0.03 95 1012.3
20260507103603 10 176 0.0 4.8 0.00 0.86 0.03 95 1012.2
20260507103503 10 176 0.0 4.8 0.00 0.89 0.03 95 1012.3
20260507103303 10 176 0.0 3.2 0.00 0.91 0.03 95 1012.1
20260507103217 10 176 0.0 3.2 0.00 0.94 0.03 95 1012.1
20260507103203 10 176 0.0 3.2 0.00 0.94 0.03 95 1012.0
20260507103103 10 176 0.0 3.2 0.00 0.94 0.03 95 1012.0
20260507102917 10 176 0.0 3.2 0.00 0.94 0.03 95 1012.0
20260507102803 10 176 0.0 3.2 0.00 0.94 0.03 95 1012.0
20260507102604 10 176 0.0 1.6 0.00 0.94 0.03 95 1012.0
20260507102503 10 176 0.0 1.6 0.00 0.94 0.03 95 1012.0
20260507102306 10 176 0.0 3.2 0.00 0.94 0.03 95 1012.0
20260507102203 10 176 0.0 3.2 0.00 0.94 0.03 95 1012.1
20260507102103 10 176 0.0 3.2 0.00 0.94 0.03 94 1012.1
20260507102006 10 176 0.0 3.2 0.00 0.94 0.03 94 1012.2
20260507101903 10 176 0.0 3.2 0.00 0.94 0.03 94 1012.1
20260507101803 10 176 0.0 3.2 0.00 0.94 0.03 94 1012.1
20260507101703 10 176 0.0 3.2 0.00 0.94 0.03 94 1012.0
20260507101604 10 176 0.0 3.2 0.00 0.94 0.03 94 1012.0
20260507101504 10 176 0.0 3.2 0.00 0.94 0.03 94 1012.1
20260507101403 10 176 0.0 3.2 0.00 0.94 0.03 94 1012.1
20260507101318 10 176 0.0 3.2 0.00 0.94 0.03 94 1012.1
20260507101203 10 176 0.0 3.2 0.00 0.94 0.03 94 1012.2
20260507101003 10 175 0.0 1.6 0.00 0.94 0.03 94 1012.2
20260507100903 10 175 0.0 1.6 0.00 0.94 0.03 94 1012.1
20260507100804 10 175 0.0 1.6 0.00 0.94 0.03 94 1012.1
20260507100703 10 170 0.0 1.6 0.00 0.94 0.03 94 1012.2
20260507100603 10 0 0.0 0.0 0.00 0.94 0.03 94 1012.2
20260507100504 10 0 0.0 0.0 0.00 0.94 0.03 94 1012.0
20260507100404 10 170 0.0 1.6 0.00 0.94 0.03 94 1012.1
20260507100303 10 170 0.0 1.6 0.00 0.94 0.03 95 1012.1
20260507100203 10 170 0.0 1.6 0.00 0.94 0.03 94 1012.1
20260507100103 10 170 0.0 1.6 0.00 0.94 0.03 95 1012.1
20260507095903 10 170 0.0 1.6 0.00 0.94 0.03 95 1012.0
20260507095804 10 170 0.0 1.6 0.00 0.94 0.03 95 1012.0
20260507095703 10 170 0.0 1.6 0.00 0.94 0.03 95 1011.9
20260507095603 10 170 0.0 1.6 0.00 0.94 0.03 95 1011.9
20260507095503 10 170 0.0 1.6 0.00 0.94 0.03 95 1011.9
20260507095403 10 0 0.0 0.0 0.00 0.94 0.03 95 1011.9
20260507095306 10 0 0.0 0.0 0.00 0.94 0.03 95 1011.9
20260507095204 10 170 0.0 1.6 0.00 0.94 0.03 95 1011.9
20260507095103 10 170 0.0 1.6 0.00 0.94 0.03 95 1012.0
20260507095004 10 170 0.0 1.6 0.00 0.94 0.03 95 1012.0
20260507094903 10 170 0.0 1.6 0.00 0.97 0.03 95 1012.0
20260507094703 10 170 0.0 1.6 0.00 0.97 0.03 95 1012.2
20260507094603 10 170 0.0 1.6 0.00 0.97 0.03 95 1012.2
20260507094404 10 170 0.0 1.6 0.00 0.97 0.03 95 1012.2
20260507094303 10 170 0.0 1.6 0.00 0.97 0.03 95 1012.3
20260507094203 10 170 0.0 1.6 0.00 0.99 0.03 95 1012.3
20260507094104 10 170 0.0 1.6 0.00 0.99 0.03 95 1012.2
20260507094005 10 170 0.0 1.6 0.00 1.04 0.03 95 1012.2
20260507093803 10 170 0.0 1.6 0.00 1.12 0.03 95 1012.0
20260507093704 10 170 0.0 1.6 0.00 1.14 0.03 95 1012.0
20260507093618 11 170 0.0 1.6 0.00 1.17 0.03 95 1012.1
20260507093604 10 170 0.0 1.6 0.00 1.17 0.03 95 1012.1
20260507093517 10 170 0.0 1.6 0.00 1.19 0.03 95 1012.1
20260507093504 11 170 0.0 1.6 0.00 1.19 0.03 95 1012.1
20260507093203 10 170 0.0 1.6 0.00 1.27 0.03 95 1012.2
20260507093103 11 170 0.0 1.6 0.00 1.30 0.03 95 1012.2
20260507093004 11 170 0.0 1.6 0.00 1.30 0.03 95 1012.2
20260507092904 11 170 0.0 1.6 0.00 1.32 0.03 95 1012.2
20260507092804 11 170 0.0 1.6 0.00 1.32 0.03 95 1012.2
20260507092703 11 170 0.0 1.6 0.00 1.32 0.03 95 1012.2
20260507092603 11 170 0.0 1.6 0.00 1.35 0.03 95 1012.3
20260507092503 11 170 0.0 1.6 0.00 1.35 0.03 95 1012.3
20260507092403 11 170 0.0 1.6 0.00 1.35 0.03 95 1012.3
20260507092307 11 170 0.0 1.6 0.00 1.35 0.03 95 1012.2
20260507092204 11 170 0.0 1.6 0.00 1.35 0.03 95 1012.2
20260507092103 11 170 0.0 1.6 0.00 1.35 0.03 95 1012.2
20260507092003 11 170 0.0 1.6 0.00 1.37 0.03 95 1012.2
20260507091804 11 170 0.0 1.6 0.00 1.37 0.03 95 1012.2
20260507091703 11 170 0.0 1.6 0.00 1.37 0.03 95 1012.2
20260507091603 11 170 0.0 3.2 0.00 1.40 0.03 95 1012.2
20260507091503 11 170 0.0 3.2 0.00 1.40 0.03 95 1012.2
20260507091404 11 170 0.0 3.2 0.00 1.40 0.03 95 1012.2
20260507091303 11 170 0.0 3.2 0.00 1.40 0.03 95 1012.2
20260507091204 11 170 0.0 3.2 0.00 1.40 0.03 95 1012.2
20260507091103 11 170 0.0 3.2 0.00 1.40 0.03 95 1012.0
20260507091004 11 170 0.0 3.2 0.00 1.42 0.03 95 1012.0
20260507090903 11 170 0.0 3.2 0.00 1.42 0.03 95 1012.0
20260507090803 11 170 0.0 3.2 0.00 1.42 0.03 95 1011.9
20260507090704 11 170 0.0 3.2 0.00 1.42 0.03 95 1011.9
20260507090603 11 170 0.0 3.2 0.00 1.42 0.03 95 1011.9
20260507090504 11 170 0.0 3.2 0.00 1.42 0.03 95 1011.9
20260507090403 11 170 0.0 3.2 0.00 1.42 0.03 95 1011.9
20260507090304 11 170 0.0 3.2 0.00 1.42 0.03 95 1012.1
20260507090203 11 170 0.0 3.2 0.00 1.42 0.03 95 1012.1
20260507090103 11 170 0.0 3.2 0.00 1.42 0.03 95 1012.1
20260507085903 11 170 0.0 3.2 0.00 1.45 0.03 95 1012.0
20260507085803 11 170 0.0 3.2 0.00 1.45 0.03 95 1012.0
20260507085703 11 170 1.6 3.2 0.00 1.45 0.03 95 1012.0
20260507085604 11 170 1.6 4.8 0.00 1.45 0.03 95 1012.0
20260507085503 11 170 0.0 4.8 0.00 1.45 0.03 95 1012.1
20260507085404 11 170 0.0 4.8 0.00 1.45 0.03 95 1012.1
20260507085306 11 170 0.0 4.8 0.00 1.45 0.03 95 1012.0
20260507085203 11 170 0.0 4.8 0.00 1.45 0.03 95 1012.0
20260507085104 11 170 0.0 4.8 0.00 1.45 0.03 95 1012.0
20260507084903 11 170 0.0 4.8 0.00 1.45 0.03 95 1011.9
20260507084803 11 170 0.0 4.8 0.00 1.45 0.03 95 1011.9
20260507084704 11 170 0.0 4.8 0.00 1.45 0.03 95 1011.8
20260507084604 11 0 0.0 0.0 0.00 1.45 0.03 95 1011.8
20260507084403 11 0 0.0 0.0 0.00 1.45 0.03 95 1011.8
20260507084303 11 0 0.0 0.0 0.00 1.45 0.03 95 1011.8
20260507084203 11 0 0.0 0.0 0.00 1.45 0.03 95 1011.8
20260507084103 11 0 0.0 0.0 0.00 1.45 0.03 95 1011.8
20260507084004 11 0 0.0 0.0 0.00 1.45 0.03 95 1011.8
20260507083703 11 0 0.0 0.0 0.00 1.45 0.03 95 1012.1
20260507083604 11 0 0.0 0.0 0.00 1.45 0.03 95 1012.1
20260507083403 11 0 0.0 0.0 0.00 1.45 0.03 95 1012.0
20260507083303 11 0 0.0 0.0 0.00 1.45 0.03 95 1012.0
20260507083203 11 0 0.0 0.0 0.00 1.45 0.03 95 1011.9
20260507083103 11 0 0.0 0.0 0.00 1.45 0.03 95 1011.9
20260507083005 11 0 0.0 0.0 0.00 1.45 0.03 95 1011.9
20260507082903 11 0 0.0 0.0 0.00 1.45 0.03 95 1011.9
20260507082803 11 0 0.0 0.0 0.00 1.45 0.03 95 1011.9
20260507082703 11 0 0.0 0.0 0.00 1.45 0.03 95 1011.9
20260507082604 11 0 0.0 0.0 0.00 1.45 0.03 95 1012.0
20260507082503 11 0 0.0 0.0 0.00 1.45 0.03 95 1012.0
20260507082404 11 0 0.0 0.0 0.00 1.45 0.03 95 1012.0
20260507082306 11 0 0.0 0.0 0.00 1.45 0.03 95 1012.0
20260507082203 11 0 0.0 0.0 0.00 1.45 0.03 95 1011.9
20260507082103 11 0 0.0 0.0 0.00 1.45 0.03 95 1012.0
20260507081904 11 0 0.0 0.0 0.00 1.45 0.03 95 1012.2
20260507081803 11 0 0.0 0.0 0.03 1.45 0.03 95 1012.3
20260507081703 11 0 0.0 0.0 0.03 1.45 0.03 95 1012.3
20260507081603 11 0 0.0 0.0 0.03 1.45 0.03 95 1012.3
20260507081503 11 0 0.0 0.0 0.03 1.45 0.03 95 1012.3
20260507081304 11 0 0.0 0.0 0.03 1.45 0.03 95 1012.2
20260507081204 11 0 0.0 0.0 0.03 1.45 0.03 95 1012.2
20260507081103 11 0 0.0 0.0 0.03 1.45 0.03 95 1012.1
20260507080904 11 0 0.0 0.0 0.03 1.45 0.03 95 1012.2
20260507080803 11 0 0.0 0.0 0.03 1.45 0.03 95 1012.1
20260507080703 11 0 0.0 0.0 0.03 1.45 0.03 95 1012.1
20260507080603 11 0 0.0 0.0 0.03 1.45 0.03 95 1012.1
20260507080504 11 0 0.0 0.0 0.03 1.45 0.03 95 1012.1
20260507080404 11 0 0.0 0.0 0.03 1.45 0.03 95 1012.0
20260507080303 11 0 0.0 0.0 0.03 1.45 0.03 95 1012.1
20260507080203 11 0 0.0 0.0 0.03 1.45 0.03 95 1012.1
20260507075903 11 0 0.0 0.0 0.03 1.45 0.03 95 1012.0
20260507075803 11 0 0.0 0.0 0.03 1.45 0.03 95 1012.0
20260507075703 11 0 0.0 0.0 0.03 1.45 0.03 95 1012.0
20260507075603 11 0 0.0 0.0 0.03 1.45 0.03 95 1012.0
20260507075504 11 0 0.0 0.0 0.03 1.45 0.03 95 1012.0
20260507075306 11 0 0.0 0.0 0.03 1.45 0.03 95 1012.1
20260507075203 11 0 0.0 0.0 0.03 1.45 0.03 95 1012.1
20260507075103 11 0 0.0 0.0 0.03 1.45 0.03 95 1012.2
20260507075003 11 0 0.0 0.0 0.03 1.45 0.03 95 1012.2
20260507074903 11 0 0.0 0.0 0.03 1.45 0.03 95 1012.2
20260507074803 11 0 0.0 0.0 0.03 1.45 0.03 95 1012.2
20260507074704 11 0 0.0 0.0 0.03 1.45 0.03 95 1012.2
20260507074604 11 0 0.0 0.0 0.03 1.45 0.03 95 1012.2
20260507074503 11 0 0.0 0.0 0.03 1.45 0.03 95 1012.2
20260507074404 11 0 0.0 0.0 0.03 1.45 0.03 95 1012.2
20260507074304 11 0 0.0 0.0 0.03 1.45 0.03 95 1012.3
20260507074203 11 0 0.0 0.0 0.03 1.45 0.03 95 1012.3
20260507074104 11 0 0.0 0.0 0.03 1.45 0.03 95 1012.3
20260507073904 11 0 0.0 0.0 0.03 1.45 0.03 95 1012.2
20260507073803 11 0 0.0 0.0 0.03 1.45 0.03 95 1012.2
20260507073704 11 0 0.0 0.0 0.03 1.45 0.03 95 1012.3
20260507073603 11 0 0.0 0.0 0.03 1.45 0.03 95 1012.3
20260507073503 11 0 0.0 0.0 0.03 1.45 0.03 95 1012.3
20260507073403 11 0 0.0 0.0 0.03 1.45 0.03 95 1012.3
20260507073304 11 0 0.0 0.0 0.03 1.45 0.03 95 1012.4
20260507073203 11 0 0.0 0.0 0.03 1.45 0.03 95 1012.4
20260507073103 11 0 0.0 0.0 0.03 1.45 0.03 95 1012.4
20260507073003 11 0 0.0 0.0 0.03 1.45 0.03 95 1012.3
20260507072904 11 0 0.0 0.0 0.03 1.45 0.03 95 1012.2
20260507072804 11 0 0.0 0.0 0.03 1.45 0.03 95 1012.2
20260507072703 11 0 0.0 0.0 0.03 1.45 0.03 95 1012.3
20260507072603 11 0 0.0 0.0 0.03 1.45 0.03 95 1012.3
20260507072503 11 0 0.0 0.0 0.03 1.45 0.03 95 1012.1
20260507072404 11 0 0.0 0.0 0.03 1.45 0.03 95 1012.1
20260507072306 11 0 0.0 0.0 0.03 1.45 0.03 95 1012.1
20260507072203 11 0 0.0 0.0 0.03 1.45 0.03 95 1011.9
20260507072103 11 0 0.0 0.0 0.03 1.45 0.03 95 1011.9
20260507072003 11 0 0.0 0.0 0.03 1.45 0.03 95 1011.8
20260507071903 11 0 0.0 0.0 0.03 1.45 0.03 95 1011.8
20260507071803 11 0 0.0 0.0 0.00 1.42 0.00 95 1011.8
20260507071719 11 0 0.0 0.0 0.00 1.42 0.00 95 1011.7
20260507071703 11 170 0.0 1.6 0.00 1.42 0.00 95 1011.7
20260507071403 11 170 0.0 1.6 0.00 1.42 0.00 95 1012.1
20260507071304 11 170 0.0 1.6 0.00 1.42 0.00 95 1012.1
20260507071203 11 170 0.0 1.6 0.00 1.42 0.00 95 1012.2
20260507071104 11 170 0.0 1.6 0.00 1.42 0.00 95 1012.3
20260507071003 11 170 0.0 1.6 0.00 1.42 0.00 95 1012.3
20260507070903 11 170 0.0 1.6 0.00 1.42 0.00 95 1012.3
20260507070803 11 170 0.0 1.6 0.00 1.42 0.00 95 1012.3
20260507070703 11 170 0.0 1.6 0.00 1.42 0.00 95 1012.4
20260507070404 11 170 0.0 1.6 0.00 1.42 0.00 95 1012.4
20260507070304 11 170 0.0 1.6 0.00 1.42 0.00 95 1012.4
20260507070203 11 170 0.0 1.6 0.00 1.42 0.00 95 1012.3
20260507070017 11 170 0.0 1.6 0.00 1.42 0.00 95 1012.2
20260507065903 11 0 0.0 0.0 0.00 1.42 0.00 95 1012.3
20260507065704 11 0 0.0 0.0 0.00 1.42 0.00 95 1012.3
20260507065603 11 170 0.0 1.6 0.00 1.42 0.00 95 1012.3
20260507065504 11 170 0.0 1.6 0.00 1.42 0.00 95 1012.3
20260507065305 11 170 0.0 1.6 0.00 1.42 0.00 95 1012.2
20260507065203 11 170 0.0 1.6 0.00 1.42 0.00 95 1012.2
20260507065103 11 170 0.0 1.6 0.00 1.42 0.00 95 1012.2
20260507065003 11 170 0.0 1.6 0.00 1.42 0.00 95 1012.2
20260507064904 11 170 0.0 1.6 0.00 1.42 0.00 95 1012.3
20260507064804 11 170 0.0 1.6 0.00 1.42 0.00 95 1012.3
20260507064703 11 170 0.0 1.6 0.00 1.42 0.00 95 1012.3
20260507064603 11 170 0.0 1.6 0.00 1.42 0.00 95 1012.2
20260507064504 11 170 0.0 1.6 0.00 1.42 0.00 95 1012.2
20260507064403 11 170 0.0 1.6 0.00 1.42 0.00 95 1012.2
20260507064104 11 170 0.0 1.6 0.00 1.42 0.00 95 1012.3
20260507064004 11 170 0.0 1.6 0.00 1.42 0.00 95 1012.3
20260507063903 11 170 0.0 1.6 0.00 1.42 0.00 95 1012.3
20260507063818 11 170 0.0 1.6 0.00 1.42 0.00 95 1012.4
20260507063804 11 0 0.0 0.0 0.00 1.42 0.00 95 1012.4
20260507063504 11 170 0.0 1.6 0.00 1.42 0.00 95 1012.4
20260507063404 11 170 0.0 1.6 0.00 1.42 0.00 95 1012.4
20260507063304 11 170 0.0 3.2 0.00 1.42 0.00 95 1012.4
20260507063203 11 170 0.0 3.2 0.00 1.42 0.00 95 1012.4
20260507063103 11 170 0.0 3.2 0.00 1.42 0.00 95 1012.3
20260507063003 11 170 0.0 3.2 0.00 1.42 0.00 95 1012.3
20260507062903 11 170 0.0 3.2 0.00 1.42 0.00 95 1012.3
20260507062804 11 170 0.0 3.2 0.00 1.42 0.00 95 1012.1
20260507062703 11 170 0.0 3.2 0.00 1.42 0.00 95 1012.1
20260507062604 11 170 0.0 3.2 0.00 1.42 0.00 95 1012.0
20260507062403 11 169 1.6 4.8 0.00 1.42 0.00 95 1012.0
20260507062306 11 169 0.0 4.8 0.00 1.42 0.00 95 1012.0
20260507062203 11 168 0.0 4.8 0.00 1.42 0.00 95 1011.9
20260507062104 11 168 0.0 4.8 0.00 1.42 0.00 95 1011.9
20260507062004 12 168 0.0 4.8 0.00 1.42 0.00 95 1011.8
20260507061903 11 168 0.0 4.8 0.00 1.42 0.00 95 1011.8
20260507061803 11 168 0.0 4.8 0.00 1.42 0.00 95 1011.8
20260507061704 12 168 0.0 4.8 0.00 1.42 0.00 95 1011.8
20260507061603 12 167 0.0 4.8 0.00 1.42 0.00 95 1011.8
20260507061503 12 166 0.0 4.8 0.00 1.42 0.00 95 1011.9
20260507061404 12 0 0.0 0.0 0.00 1.42 0.00 95 1011.9
20260507061303 12 47 0.0 1.6 0.00 1.42 0.00 95 1011.7
20260507061203 12 47 0.0 1.6 0.00 1.42 0.00 95 1011.7
20260507061103 12 47 0.0 1.6 0.00 1.42 0.00 95 1011.7
20260507061004 12 47 0.0 1.6 0.00 1.42 0.00 95 1011.8
20260507060919 12 47 0.0 1.6 0.00 1.42 0.00 95 1011.8
20260507060903 12 47 0.0 1.6 0.00 1.42 0.00 95 1012.0
20260507060803 12 47 0.0 1.6 0.00 1.42 0.00 95 1012.0
20260507060718 12 47 0.0 1.6 0.00 1.42 0.00 95 1012.1
20260507060603 12 47 0.0 1.6 0.00 1.42 0.00 95 1012.1
20260507060418 12 47 0.0 1.6 0.00 1.42 0.00 95 1012.2
20260507060403 12 47 0.0 1.6 0.00 1.42 0.00 95 1012.3
20260507060303 12 47 0.0 1.6 0.00 1.42 0.00 95 1012.3
20260507060004 12 47 0.0 1.6 0.00 1.42 0.00 95 1012.3
20260507055803 12 47 0.0 1.6 0.00 1.42 0.00 95 1012.2
20260507055703 12 47 0.0 1.6 0.00 1.42 0.00 95 1012.0
20260507055603 12 47 0.0 1.6 0.00 1.42 0.00 95 1012.0
20260507055503 12 47 0.0 1.6 0.00 1.42 0.00 95 1012.0
20260507055305 12 47 0.0 1.6 0.00 1.42 0.00 95 1012.1
20260507055204 12 47 0.0 1.6 0.00 1.42 0.00 95 1012.1
20260507055104 12 47 0.0 1.6 0.00 1.42 0.00 95 1012.2
20260507055004 12 47 0.0 1.6 0.00 1.42 0.00 95 1012.2
20260507054903 12 0 0.0 0.0 0.00 1.42 0.00 95 1012.3
20260507054804 12 0 0.0 0.0 0.00 1.42 0.00 95 1012.3
20260507054703 12 0 0.0 0.0 0.00 1.42 0.00 95 1012.2
20260507054603 12 0 0.0 0.0 0.00 1.42 0.00 95 1012.2
20260507054503 12 47 0.0 1.6 0.00 1.42 0.00 95 1012.2
20260507054403 12 47 0.0 1.6 0.00 1.42 0.00 95 1012.2
20260507054304 12 47 0.0 1.6 0.00 1.42 0.00 95 1012.2
20260507054203 12 47 0.0 1.6 0.00 1.42 0.00 95 1012.3
20260507054103 12 47 0.0 1.6 0.00 1.42 0.00 95 1012.4
20260507053803 12 47 0.0 1.6 0.00 1.42 0.00 95 1012.5
20260507053703 12 47 0.0 1.6 0.00 1.42 0.00 95 1012.5
20260507053603 12 47 0.0 1.6 0.00 1.42 0.00 95 1012.6
20260507053503 12 47 0.0 1.6 0.00 1.42 0.00 95 1012.6
20260507053403 12 47 0.0 1.6 0.00 1.42 0.00 95 1012.8
20260507053303 12 0 0.0 0.0 0.00 1.42 0.00 95 1012.8
20260507053103 12 0 0.0 0.0 0.00 1.42 0.00 95 1012.7
20260507053003 12 0 0.0 0.0 0.00 1.42 0.00 95 1012.7
20260507052903 12 0 0.0 0.0 0.00 1.42 0.00 95 1012.5
20260507052803 12 0 0.0 0.0 0.00 1.42 0.00 95 1012.6
20260507052704 12 0 0.0 0.0 0.00 1.42 0.00 95 1012.6
20260507052603 12 47 0.0 1.6 0.00 1.42 0.00 95 1012.8
20260507052503 12 47 0.0 1.6 0.00 1.42 0.00 95 1012.8
20260507052403 12 47 0.0 1.6 0.00 1.42 0.00 95 1013.0
20260507052306 12 47 0.0 1.6 0.00 1.42 0.00 95 1013.0
20260507052217 12 47 0.0 1.6 0.00 1.42 0.00 95 1013.0
20260507052103 12 47 0.0 1.6 0.00 1.42 0.00 95 1013.2
20260507051803 12 47 0.0 1.6 0.00 1.42 0.00 95 1013.2
20260507051703 12 47 0.0 1.6 0.00 1.42 0.00 95 1013.2
20260507051503 12 0 0.0 0.0 0.00 1.42 0.00 95 1013.0
20260507051403 12 0 0.0 0.0 0.00 1.42 0.00 95 1013.0
20260507051303 12 0 0.0 0.0 0.00 1.42 0.00 95 1013.2
20260507051203 12 0 0.0 0.0 0.00 1.42 0.00 95 1013.2
20260507051104 12 0 0.0 0.0 0.00 1.42 0.00 95 1013.3
20260507051003 12 0 0.0 0.0 0.00 1.42 0.00 95 1013.3
20260507050904 12 47 0.0 1.6 0.00 1.42 0.00 95 1013.3
20260507050803 12 47 0.0 1.6 0.00 1.42 0.00 95 1013.1
20260507050718 12 47 0.0 1.6 0.00 1.42 0.00 95 1013.1
20260507050403 12 47 0.0 1.6 0.00 1.42 0.00 95 1012.9
20260507050303 12 47 0.0 1.6 0.00 1.42 0.00 95 1012.9
20260507050217 12 47 0.0 1.6 0.00 1.42 0.00 95 1012.9
20260507050204 12 47 0.0 1.6 0.00 1.42 0.00 95 1013.0
20260507050103 12 47 0.0 1.6 0.00 1.42 0.00 95 1013.0
20260507045903 12 47 0.0 1.6 0.00 1.42 1.42 95 1013.0
20260507045803 12 47 0.0 1.6 0.00 1.42 1.42 95 1013.1
20260507045703 12 0 0.0 0.0 0.00 1.42 1.42 95 1013.1
20260507045603 12 0 0.0 0.0 0.00 1.42 1.42 95 1013.1
20260507045517 12 0 0.0 0.0 0.00 1.42 1.42 95 1013.1
20260507045504 12 0 0.0 0.0 0.00 1.42 1.42 95 1013.2
20260507045404 12 0 0.0 0.0 0.00 1.42 1.42 95 1013.2
20260507045204 12 47 0.0 1.6 0.00 1.42 1.42 95 1013.3
20260507045104 12 47 0.0 1.6 0.00 1.42 1.42 95 1013.3
20260507045004 12 47 0.0 1.6 0.00 1.42 1.42 95 1013.3
20260507044904 12 47 0.0 1.6 0.00 1.42 1.42 95 1013.3
20260507044804 12 47 0.0 1.6 0.00 1.42 1.42 95 1013.4
20260507044704 12 47 0.0 1.6 0.00 1.42 1.42 95 1013.4
20260507044603 12 47 0.0 1.6 0.00 1.42 1.42 95 1013.5
20260507044504 12 47 0.0 1.6 0.00 1.42 1.42 95 1013.4
20260507044404 12 47 0.0 1.6 0.00 1.42 1.42 95 1013.4
20260507044303 12 47 0.0 1.6 0.00 1.42 1.42 95 1013.3
20260507044204 12 47 0.0 1.6 0.00 1.42 1.42 95 1013.3
20260507044104 12 47 0.0 1.6 0.00 1.42 1.42 95 1013.3
20260507044004 12 47 0.0 1.6 0.00 1.42 1.42 95 1013.3
20260507043903 12 47 0.0 1.6 0.00 1.42 1.42 95 1013.3
20260507043803 12 0 0.0 0.0 0.00 1.42 1.42 95 1013.2
20260507043704 12 0 0.0 0.0 0.00 1.42 1.42 95 1013.1
20260507043604 12 0 0.0 0.0 0.00 1.42 1.42 95 1013.1
20260507043503 12 0 0.0 0.0 0.00 1.42 1.42 95 1012.9
20260507043404 12 0 0.0 0.0 0.00 1.42 1.42 95 1012.9
20260507043104 12 0 0.0 0.0 0.00 1.42 1.42 95 1013.0
20260507043004 12 0 0.0 0.0 0.00 1.42 1.42 95 1012.9
20260507042903 12 0 0.0 0.0 0.00 1.42 1.42 95 1012.9
20260507042803 12 0 0.0 0.0 0.00 1.42 1.42 95 1012.8
20260507042703 12 47 0.0 1.6 0.00 1.42 1.42 95 1012.7
20260507042603 12 47 0.0 1.6 0.00 1.42 1.42 95 1012.7
20260507042403 12 47 0.0 1.6 0.00 1.42 1.42 95 1012.5
20260507042306 12 47 0.0 1.6 0.00 1.42 1.42 95 1012.5
20260507042203 12 47 0.0 1.6 0.00 1.42 1.42 95 1012.5
20260507042104 12 47 0.0 1.6 0.00 1.42 1.42 95 1012.5
20260507041904 12 47 0.0 1.6 0.00 1.42 1.42 95 1012.6
20260507041803 12 47 0.0 1.6 0.00 1.42 1.42 95 1012.6
20260507041704 12 47 0.0 1.6 0.00 1.42 1.42 95 1012.9
20260507041603 12 47 0.0 1.6 0.00 1.42 1.42 95 1012.9
20260507041504 12 47 0.0 1.6 0.00 1.42 1.42 95 1012.8
20260507041404 12 47 0.0 1.6 0.00 1.42 1.42 95 1012.9
20260507041304 12 47 0.0 1.6 0.00 1.42 1.42 95 1012.9
20260507041203 12 47 0.0 1.6 0.00 1.42 1.42 95 1013.0
20260507041103 12 47 0.0 1.6 0.00 1.42 1.42 95 1013.0
20260507041003 12 47 0.0 1.6 0.00 1.42 1.42 95 1012.9
20260507040903 12 47 0.0 1.6 0.00 1.42 1.42 95 1012.8
20260507040803 12 47 0.0 1.6 0.00 1.42 1.42 95 1012.8
20260507040703 12 47 0.0 1.6 0.00 1.42 1.42 95 1012.7
20260507040603 12 47 0.0 1.6 0.00 1.42 1.42 95 1012.7
20260507040403 12 47 0.0 1.6 0.00 1.42 1.42 95 1012.7
20260507040303 12 47 0.0 1.6 0.00 1.42 1.42 95 1012.7
20260507040203 12 47 0.0 1.6 0.00 1.42 1.42 95 1012.7
20260507040104 12 47 0.0 1.6 0.00 1.42 1.42 95 1012.6
20260507040003 12 47 0.0 1.6 0.00 1.42 1.42 95 1012.6
20260507035903 12 47 0.0 1.6 0.00 1.42 1.42 95 1012.6
20260507035804 12 47 0.0 1.6 0.00 1.42 1.42 95 1012.6
20260507035703 12 47 0.0 1.6 0.00 1.42 1.42 95 1012.6
20260507035603 12 47 0.0 1.6 0.00 1.42 1.42 94 1012.7
20260507035306 12 47 0.0 1.6 0.00 1.42 1.42 94 1012.8
20260507035203 12 47 0.0 3.2 0.00 1.42 1.42 94 1012.8
20260507035103 12 47 0.0 3.2 0.00 1.42 1.42 95 1012.8
20260507035003 12 47 0.0 3.2 0.00 1.42 1.42 95 1012.8
20260507034903 12 47 0.0 3.2 0.00 1.42 1.42 94 1013.0
20260507034803 12 47 0.0 3.2 0.00 1.42 1.42 94 1013.1
20260507034704 12 47 0.0 3.2 0.00 1.42 1.42 94 1013.1
20260507034603 12 47 0.0 3.2 0.00 1.42 1.42 94 1012.8
20260507034503 12 47 0.0 3.2 0.00 1.42 1.42 94 1012.8
20260507034404 12 47 1.6 3.2 0.00 1.42 1.42 94 1012.7
20260507034303 12 47 0.0 3.2 0.00 1.42 1.42 94 1012.6
20260507034104 12 47 0.0 3.2 0.00 1.42 1.42 94 1012.6
20260507034003 12 47 0.0 3.2 0.00 1.42 1.42 94 1012.6
20260507033904 12 47 0.0 1.6 0.00 1.42 1.42 94 1012.4
20260507033803 12 47 0.0 1.6 0.00 1.42 1.42 94 1012.5
20260507033704 12 47 0.0 3.2 0.00 1.42 1.42 94 1012.5
20260507033604 12 47 0.0 3.2 0.00 1.42 1.42 94 1012.8
20260507033516 12 47 0.0 3.2 0.00 1.42 1.42 94 1012.8
20260507033403 12 47 0.0 3.2 0.00 1.42 1.42 94 1012.9
20260507033103 12 47 0.0 3.2 0.00 1.42 1.42 94 1012.9
20260507033004 12 47 0.0 3.2 0.00 1.42 1.42 94 1012.8
20260507032804 12 47 0.0 3.2 0.00 1.42 1.42 94 1012.6
20260507032704 12 47 0.0 3.2 0.00 1.42 1.42 94 1012.6
20260507032603 12 47 0.0 3.2 0.00 1.42 1.42 94 1012.5
20260507032503 12 47 0.0 3.2 0.00 1.42 1.42 94 1012.5
20260507032404 12 47 0.0 3.2 0.00 1.42 1.42 94 1012.5
20260507032306 12 47 0.0 3.2 0.00 1.42 1.42 94 1012.5
20260507032203 12 47 0.0 3.2 0.00 1.42 1.42 95 1012.5
20260507032004 12 47 0.0 3.2 0.00 1.42 1.42 94 1012.6
20260507031904 12 47 0.0 3.2 0.00 1.42 1.42 95 1012.6
20260507031704 12 47 0.0 3.2 0.00 1.42 1.42 95 1012.7
20260507031603 12 47 0.0 3.2 0.00 1.42 1.42 94 1012.7
20260507031503 12 47 0.0 3.2 0.00 1.42 1.42 95 1012.8
20260507031404 12 47 0.0 3.2 0.00 1.42 1.42 95 1012.8
20260507031304 12 47 0.0 3.2 0.00 1.42 1.42 95 1012.7
20260507031204 12 47 0.0 3.2 0.00 1.42 1.42 95 1012.7
20260507031104 12 47 0.0 1.6 0.00 1.42 1.42 95 1012.7
20260507031004 12 47 0.0 1.6 0.00 1.42 1.42 95 1012.6
20260507030903 12 47 0.0 1.6 0.00 1.42 1.42 95 1012.6
20260507030804 12 47 0.0 1.6 0.03 1.42 1.42 95 1012.5
20260507030704 12 47 0.0 1.6 0.03 1.42 1.42 95 1012.5
20260507030604 12 47 0.0 1.6 0.03 1.42 1.42 95 1012.5
20260507030504 12 47 0.0 1.6 0.05 1.42 1.42 95 1012.7
20260507030403 12 47 0.0 1.6 0.05 1.42 1.42 94 1012.7
20260507030304 12 47 0.0 1.6 0.05 1.42 1.42 94 1012.6
20260507030203 12 47 0.0 1.6 0.05 1.42 1.42 95 1012.6
20260507030004 12 47 0.0 3.2 0.05 1.42 1.42 94 1012.6
20260507025903 12 47 0.0 3.2 0.05 1.42 1.42 94 1012.7
20260507025803 12 47 0.0 3.2 0.05 1.42 1.42 95 1012.7
20260507025703 12 47 0.0 3.2 0.05 1.42 1.42 95 1012.7
20260507025604 12 47 1.6 3.2 0.05 1.42 1.42 95 1012.7
20260507025503 12 47 1.6 3.2 0.05 1.42 1.42 95 1012.7
20260507025403 12 47 1.6 3.2 0.05 1.42 1.42 95 1012.8
20260507025306 12 47 1.6 4.8 0.05 1.42 1.42 95 1012.8
20260507025203 12 47 1.6 4.8 0.05 1.42 1.42 95 1012.8
20260507025103 12 46 1.6 4.8 0.05 1.42 1.42 95 1012.8
20260507025003 12 40 1.6 4.8 0.05 1.42 1.42 94 1012.8
20260507024903 12 32 1.6 4.8 0.05 1.42 1.42 95 1012.7
20260507024803 12 22 1.6 4.8 0.05 1.42 1.42 94 1012.7
20260507024703 12 19 1.6 4.8 0.05 1.42 1.42 94 1012.6
20260507024603 12 13 1.6 4.8 0.08 1.42 1.42 94 1012.5
20260507024503 12 5 1.6 4.8 0.08 1.42 1.42 94 1012.5
20260507024403 12 359 1.6 4.8 0.08 1.42 1.42 94 1012.5
20260507024303 12 348 1.6 4.8 0.08 1.42 1.42 94 1012.5
20260507024204 12 341 1.6 4.8 0.08 1.42 1.42 94 1012.3
20260507024103 12 329 1.6 3.2 0.08 1.42 1.42 95 1012.3
20260507024003 12 329 0.0 3.2 0.08 1.42 1.42 95 1012.3
20260507023903 12 329 0.0 3.2 0.08 1.42 1.42 95 1012.4
20260507023803 12 328 0.0 3.2 0.10 1.42 1.42 95 1012.4
20260507023703 12 331 0.0 3.2 0.10 1.42 1.42 95 1012.4
20260507023604 12 336 0.0 3.2 0.10 1.42 1.42 95 1012.4
20260507023518 12 341 0.0 3.2 0.10 1.42 1.42 95 1012.4
20260507023504 12 342 0.0 3.2 0.10 1.42 1.42 95 1012.4
20260507023404 12 343 1.6 3.2 0.10 1.42 1.42 95 1012.5
20260507023203 12 344 1.6 4.8 0.10 1.42 1.42 95 1012.6
20260507023117 12 343 1.6 4.8 0.10 1.42 1.42 95 1012.6
20260507023104 12 342 1.6 4.8 0.10 1.42 1.42 95 1012.6
20260507023003 12 336 1.6 4.8 0.10 1.42 1.42 95 1012.6
20260507022803 12 324 1.6 4.8 0.10 1.42 1.42 95 1012.5
20260507022703 12 272 1.6 4.8 0.10 1.42 1.42 95 1012.5
20260507022604 12 214 1.6 4.8 0.10 1.42 1.42 95 1012.5
20260507022518 12 200 1.6 4.8 0.10 1.42 1.42 95 1012.5
20260507022503 12 196 1.6 4.8 0.10 1.42 1.42 95 1012.5
20260507022404 12 186 0.0 4.8 0.10 1.42 1.42 95 1012.5
20260507022203 12 181 0.0 3.2 0.10 1.42 1.42 95 1012.4
20260507022103 12 181 0.0 3.2 0.10 1.42 1.42 95 1012.5
20260507022004 12 181 0.0 3.2 0.10 1.42 1.42 95 1012.5
20260507021903 12 0 0.0 0.0 0.10 1.42 1.42 95 1012.4
20260507021803 12 0 0.0 0.0 0.10 1.42 1.42 95 1012.5
20260507021703 12 0 0.0 0.0 0.10 1.42 1.42 95 1012.5
20260507021603 12 0 0.0 0.0 0.10 1.42 1.42 95 1012.5
20260507021504 12 0 0.0 0.0 0.13 1.42 1.42 95 1012.5
20260507021404 12 0 0.0 0.0 0.13 1.42 1.42 95 1012.5
20260507021203 12 0 0.0 0.0 0.13 1.42 1.42 95 1012.4
20260507021104 12 0 0.0 0.0 0.13 1.42 1.42 95 1012.5
20260507021003 12 0 0.0 0.0 0.13 1.42 1.42 95 1012.6
20260507020904 12 0 0.0 0.0 0.13 1.42 1.42 95 1012.6
20260507020803 13 0 0.0 0.0 0.10 1.40 1.40 95 1012.7
20260507020704 12 0 0.0 0.0 0.10 1.40 1.40 95 1012.7
20260507020603 12 0 0.0 0.0 0.10 1.40 1.40 95 1012.7
20260507020503 12 0 0.0 0.0 0.08 1.37 1.37 95 1012.6
20260507020403 12 0 0.0 0.0 0.08 1.37 1.37 95 1012.6
20260507020303 12 0 0.0 0.0 0.08 1.37 1.37 95 1012.9
20260507020103 12 0 0.0 0.0 0.08 1.37 1.37 95 1013.3
20260507020003 12 0 0.0 0.0 0.08 1.37 1.37 95 1013.3
20260507015903 12 0 0.0 0.0 0.08 1.37 1.37 95 1013.3
20260507015803 12 0 0.0 0.0 0.08 1.37 1.37 94 1013.1
20260507015704 12 0 0.0 0.0 0.08 1.37 1.37 95 1013.1
20260507015603 12 0 0.0 0.0 0.08 1.37 1.37 95 1013.0
20260507015503 12 0 0.0 0.0 0.08 1.37 1.37 95 1013.0
20260507015404 12 0 0.0 0.0 0.08 1.37 1.37 95 1013.0
20260507015204 13 0 0.0 0.0 0.08 1.37 1.37 95 1013.0
20260507015104 12 0 0.0 0.0 0.08 1.37 1.37 95 1013.0
20260507015003 13 0 0.0 0.0 0.08 1.40 1.37 95 1012.9
20260507014904 13 0 0.0 0.0 0.08 1.40 1.37 94 1012.9
20260507014804 13 0 0.0 0.0 0.08 1.40 1.37 95 1012.9
20260507014704 13 0 0.0 0.0 0.08 1.40 1.37 94 1013.1
20260507014603 13 0 0.0 0.0 0.05 1.37 1.35 94 1013.1
20260507014504 13 0 0.0 0.0 0.05 1.37 1.35 94 1013.3
20260507014404 13 0 0.0 0.0 0.05 1.37 1.35 94 1013.3
20260507014303 13 0 0.0 0.0 0.05 1.37 1.35 94 1013.2
20260507014203 13 0 0.0 0.0 0.05 1.37 1.35 94 1013.3
20260507014003 13 0 0.0 0.0 0.05 1.37 1.35 94 1013.0
20260507013903 13 0 0.0 0.0 0.05 1.37 1.35 94 1013.3
20260507013804 13 0 0.0 0.0 0.03 1.35 1.35 94 1013.3
20260507013703 13 0 0.0 0.0 0.03 1.35 1.32 94 1013.6
20260507013603 13 0 0.0 0.0 0.03 1.35 1.32 94 1013.6
20260507013503 13 0 0.0 0.0 0.03 1.35 1.32 94 1014.0
20260507013304 13 0 0.0 0.0 0.03 1.35 1.32 94 1014.1
20260507013203 13 0 0.0 0.0 0.03 1.35 1.32 94 1013.5
20260507013103 13 0 0.0 0.0 0.03 1.35 1.32 94 1013.5
20260507013003 13 0 0.0 0.0 0.03 1.35 1.32 94 1012.7
20260507012903 13 0 0.0 0.0 0.03 1.35 1.32 94 1012.4
20260507012803 13 0 0.0 0.0 0.03 1.35 1.32 94 1012.4
20260507012704 13 0 0.0 0.0 0.03 1.35 1.32 94 1012.1
20260507012603 13 0 0.0 0.0 0.03 1.35 1.32 94 1012.1
20260507012503 13 0 0.0 0.0 0.03 1.35 1.32 94 1011.9
20260507012404 13 0 0.0 0.0 0.03 1.35 1.32 94 1011.9
20260507012306 13 0 0.0 0.0 0.03 1.35 1.32 94 1011.9
20260507012204 13 0 0.0 0.0 0.03 1.35 1.32 94 1011.8
20260507012118 13 0 0.0 0.0 0.03 1.35 1.32 94 1011.8
20260507012003 13 0 0.0 0.0 0.03 1.35 1.32 94 1011.9
20260507011703 13 0 0.0 0.0 0.03 1.35 1.32 94 1012.3
20260507011603 13 0 0.0 0.0 0.03 1.35 1.32 94 1012.5
20260507011503 13 0 0.0 0.0 0.00 1.32 1.30 94 1012.5
20260507011403 13 0 0.0 0.0 0.00 1.32 1.30 94 1012.9
20260507011303 13 0 0.0 0.0 0.00 1.32 1.30 94 1012.9
20260507011203 13 0 0.0 0.0 0.00 1.32 1.30 94 1013.0
20260507011103 13 0 0.0 0.0 0.00 1.32 1.30 94 1012.9
20260507011003 13 0 0.0 0.0 0.00 1.32 1.30 94 1012.9
20260507010803 13 0 0.0 0.0 0.00 1.32 1.30 94 1012.8
20260507010704 13 0 0.0 0.0 0.00 1.32 1.30 94 1012.7
20260507010604 13 0 0.0 0.0 0.00 1.32 1.30 94 1012.6
20260507010503 13 0 0.0 0.0 0.00 1.32 1.30 94 1012.6
20260507010403 13 0 0.0 0.0 0.00 1.32 1.30 94 1012.5
20260507010303 13 0 0.0 0.0 0.00 1.32 1.30 94 1012.5
20260507010203 13 0 0.0 0.0 0.00 1.32 1.30 94 1012.5
20260507010104 13 0 0.0 0.0 0.00 1.32 1.30 94 1012.5
20260507010004 13 0 0.0 0.0 0.03 1.32 1.30 94 1012.5
20260507005903 13 0 0.0 0.0 0.03 1.32 1.30 94 1012.4
20260507005803 13 0 0.0 0.0 0.03 1.32 1.30 94 1012.3
20260507005703 13 0 0.0 0.0 0.03 1.35 1.30 94 1012.3
20260507005603 13 0 0.0 0.0 0.03 1.35 1.30 94 1012.0
20260507005404 13 0 0.0 0.0 0.03 1.35 1.30 94 1011.8
20260507005306 13 0 0.0 0.0 0.03 1.35 1.30 94 1011.7
20260507005204 13 0 0.0 0.0 0.03 1.35 1.30 94 1011.7
20260507005103 13 0 0.0 0.0 0.03 1.35 1.30 94 1011.6
20260507005003 13 0 0.0 0.0 0.03 1.35 1.30 94 1011.4
20260507004903 13 0 0.0 0.0 0.03 1.37 1.30 94 1011.4
20260507004803 13 0 0.0 0.0 0.03 1.37 1.30 94 1011.2
20260507004703 13 0 0.0 0.0 0.03 1.37 1.30 94 1011.2
20260507004603 13 0 0.0 0.0 0.03 1.37 1.30 94 1010.9
20260507004503 13 0 0.0 0.0 0.03 1.37 1.30 94 1010.8
20260507004403 13 0 0.0 0.0 0.03 1.37 1.30 94 1010.8
20260507004303 13 0 0.0 0.0 0.03 1.37 1.30 94 1010.7
20260507004204 13 0 0.0 0.0 0.03 1.37 1.30 94 1010.7
20260507004104 13 0 0.0 0.0 0.03 1.37 1.30 94 1010.6
20260507004004 13 0 0.0 0.0 0.03 1.37 1.30 94 1010.6
20260507003903 13 0 0.0 0.0 0.03 1.37 1.30 94 1010.6
20260507003703 13 0 0.0 0.0 0.03 1.37 1.30 94 1010.4
20260507003604 13 0 0.0 0.0 0.03 1.37 1.30 94 1010.4
20260507003519 13 0 0.0 0.0 0.03 1.37 1.30 94 1010.4
20260507003404 13 0 0.0 0.0 0.03 1.37 1.30 94 1010.4
20260507003204 13 0 0.0 0.0 0.03 1.37 1.30 94 1010.6
20260507003104 13 0 0.0 0.0 0.03 1.37 1.30 94 1010.6
20260507003003 13 0 0.0 0.0 0.03 1.37 1.30 94 1010.6
20260507002903 13 0 0.0 0.0 0.03 1.37 1.30 94 1010.6
20260507002803 13 0 0.0 0.0 0.03 1.37 1.30 94 1010.7
20260507002704 13 0 0.0 0.0 0.03 1.37 1.30 94 1010.7
20260507002604 13 0 0.0 0.0 0.03 1.37 1.30 94 1010.7
20260507002404 13 0 0.0 0.0 0.03 1.37 1.30 94 1010.8
20260507002306 13 0 0.0 0.0 0.03 1.37 1.30 94 1010.9
20260507002203 13 0 0.0 0.0 0.03 1.37 1.30 94 1011.0
20260507002104 13 181 0.0 1.6 0.03 1.37 1.30 94 1011.0
20260507001903 13 181 0.0 1.6 0.05 1.37 1.30 94 1011.0
20260507001803 13 181 0.0 1.6 0.05 1.37 1.30 94 1011.0
20260507001704 13 181 0.0 1.6 0.05 1.37 1.30 94 1010.9
20260507001603 13 181 0.0 1.6 0.05 1.37 1.30 94 1010.9
20260507001504 13 181 0.0 1.6 0.05 1.37 1.30 94 1010.9
20260507001404 13 181 0.0 1.6 0.05 1.37 1.30 94 1010.9
20260507001304 13 181 0.0 1.6 0.05 1.37 1.30 94 1010.9
20260507001204 13 181 0.0 1.6 0.05 1.37 1.30 94 1011.0
20260507001103 13 181 0.0 1.6 0.05 1.37 1.30 94 1011.0
20260507001003 13 181 0.0 1.6 0.05 1.37 1.30 94 1011.1
20260507000903 13 181 0.0 1.6 0.05 1.37 1.30 94 1011.1
20260507000804 13 181 0.0 1.6 0.05 1.37 1.30 94 1011.1
20260507000703 13 181 0.0 1.6 0.05 1.37 1.30 94 1011.2
20260507000405 13 181 0.0 1.6 0.05 1.37 1.30 94 1011.3
20260507000306 13 181 0.0 1.6 0.05 1.37 1.30 94 1011.3